<?xml version="1.0" encoding="UTF-8" standalone="no" ?>
<gpx xmlns="http://www.topografix.com/GPX/1/1" xmlns:xsi="http://www.w3.org/2001/XMLSchema-instance" xsi:schemaLocation="http://www.topografix.com/GPX/1/1 http://www.topografix.com/GPX/1/1/gpx.xsd" version="1.1" creator="VisuGPX - https://www.visugpx.com">
  <metadata>
    <name>1er jour jura</name>
    <desc><![CDATA[1er jour d'une boucle dans le jura]]></desc>
  </metadata>
  <trk>
    <name><![CDATA[2EME JOUR JURA 57 Km 1347m]]></name>
    <trkseg>
      <trkpt lat="46.64006" lon="6.02999">
        <ele>793</ele>
        <time>2010-05-11T12:50:45Z</time>
      </trkpt>
      <trkpt lat="46.64008" lon="6.03028">
        <ele>792</ele>
        <time>2010-05-11T12:50:45Z</time>
      </trkpt>
      <trkpt lat="46.63897" lon="6.03046">
        <ele>789</ele>
        <time>2010-05-11T12:50:45Z</time>
      </trkpt>
      <trkpt lat="46.63802" lon="6.0305">
        <ele>794</ele>
        <time>2010-05-11T12:50:45Z</time>
      </trkpt>
      <trkpt lat="46.63732" lon="6.03055">
        <ele>792</ele>
        <time>2010-05-11T12:50:45Z</time>
      </trkpt>
      <trkpt lat="46.6371" lon="6.03053">
        <ele>792</ele>
        <time>2010-05-11T12:50:45Z</time>
      </trkpt>
      <trkpt lat="46.63608" lon="6.03066">
        <ele>796</ele>
        <time>2010-05-11T12:50:45Z</time>
      </trkpt>
      <trkpt lat="46.63524" lon="6.03099">
        <ele>799</ele>
        <time>2010-05-11T12:50:45Z</time>
      </trkpt>
      <trkpt lat="46.63424" lon="6.03135">
        <ele>805</ele>
        <time>2010-05-11T12:50:45Z</time>
      </trkpt>
      <trkpt lat="46.63359" lon="6.03036">
        <ele>808</ele>
        <time>2010-05-11T12:50:45Z</time>
      </trkpt>
      <trkpt lat="46.63322" lon="6.02945">
        <ele>811</ele>
        <time>2010-05-11T12:50:45Z</time>
      </trkpt>
      <trkpt lat="46.63299" lon="6.02897">
        <ele>811</ele>
        <time>2010-05-11T12:50:45Z</time>
      </trkpt>
      <trkpt lat="46.6324" lon="6.02887">
        <ele>814</ele>
        <time>2010-05-11T12:50:45Z</time>
      </trkpt>
      <trkpt lat="46.63165" lon="6.02908">
        <ele>817</ele>
        <time>2010-05-11T12:50:45Z</time>
      </trkpt>
      <trkpt lat="46.63062" lon="6.02956">
        <ele>825</ele>
        <time>2010-05-11T12:50:45Z</time>
      </trkpt>
      <trkpt lat="46.62972" lon="6.03042">
        <ele>828</ele>
        <time>2010-05-11T12:50:45Z</time>
      </trkpt>
      <trkpt lat="46.62884" lon="6.03124">
        <ele>836</ele>
        <time>2010-05-11T12:50:45Z</time>
      </trkpt>
      <trkpt lat="46.62846" lon="6.03164">
        <ele>839</ele>
        <time>2010-05-11T12:50:45Z</time>
      </trkpt>
      <trkpt lat="46.62799" lon="6.03164">
        <ele>848</ele>
        <time>2010-05-11T12:50:45Z</time>
      </trkpt>
      <trkpt lat="46.62772" lon="6.03084">
        <ele>850</ele>
        <time>2010-05-11T12:50:45Z</time>
      </trkpt>
      <trkpt lat="46.6276" lon="6.03034">
        <ele>847</ele>
        <time>2010-05-11T12:50:45Z</time>
      </trkpt>
      <trkpt lat="46.62716" lon="6.03018">
        <ele>853</ele>
        <time>2010-05-11T12:50:45Z</time>
      </trkpt>
      <trkpt lat="46.6268" lon="6.03002">
        <ele>856</ele>
        <time>2010-05-11T12:50:45Z</time>
      </trkpt>
      <trkpt lat="46.62635" lon="6.03006">
        <ele>863</ele>
        <time>2010-05-11T12:50:45Z</time>
      </trkpt>
      <trkpt lat="46.6258" lon="6.03113">
        <ele>868</ele>
        <time>2010-05-11T12:50:45Z</time>
      </trkpt>
      <trkpt lat="46.62567" lon="6.03178">
        <ele>872</ele>
        <time>2010-05-11T12:50:45Z</time>
      </trkpt>
      <trkpt lat="46.62563" lon="6.03213">
        <ele>875</ele>
        <time>2010-05-11T12:50:45Z</time>
      </trkpt>
      <trkpt lat="46.62534" lon="6.03267">
        <ele>877</ele>
        <time>2010-05-11T12:50:45Z</time>
      </trkpt>
      <trkpt lat="46.62465" lon="6.03458">
        <ele>889</ele>
        <time>2010-05-11T12:50:45Z</time>
      </trkpt>
      <trkpt lat="46.62434" lon="6.03518">
        <ele>891</ele>
        <time>2010-05-11T12:50:45Z</time>
      </trkpt>
      <trkpt lat="46.62412" lon="6.03566">
        <ele>893</ele>
        <time>2010-05-11T12:50:45Z</time>
      </trkpt>
      <trkpt lat="46.6241" lon="6.03647">
        <ele>897</ele>
        <time>2010-05-11T12:50:45Z</time>
      </trkpt>
      <trkpt lat="46.62419" lon="6.03785">
        <ele>901</ele>
        <time>2010-05-11T12:50:45Z</time>
      </trkpt>
      <trkpt lat="46.624" lon="6.03879">
        <ele>900</ele>
        <time>2010-05-11T12:50:45Z</time>
      </trkpt>
      <trkpt lat="46.62362" lon="6.03945">
        <ele>899</ele>
        <time>2010-05-11T12:50:45Z</time>
      </trkpt>
      <trkpt lat="46.62352" lon="6.04026">
        <ele>902</ele>
        <time>2010-05-11T12:50:45Z</time>
      </trkpt>
      <trkpt lat="46.62364" lon="6.04089">
        <ele>906</ele>
        <time>2010-05-11T12:50:45Z</time>
      </trkpt>
      <trkpt lat="46.62411" lon="6.04144">
        <ele>911</ele>
        <time>2010-05-11T12:50:45Z</time>
      </trkpt>
      <trkpt lat="46.62451" lon="6.04238">
        <ele>915</ele>
        <time>2010-05-11T12:50:45Z</time>
      </trkpt>
      <trkpt lat="46.62463" lon="6.04305">
        <ele>916</ele>
        <time>2010-05-11T12:50:45Z</time>
      </trkpt>
      <trkpt lat="46.62468" lon="6.04357">
        <ele>918</ele>
        <time>2010-05-11T12:50:45Z</time>
      </trkpt>
      <trkpt lat="46.62484" lon="6.04404">
        <ele>921</ele>
        <time>2010-05-11T12:50:45Z</time>
      </trkpt>
      <trkpt lat="46.62449" lon="6.04454">
        <ele>927</ele>
        <time>2010-05-11T12:50:45Z</time>
      </trkpt>
      <trkpt lat="46.62417" lon="6.04449">
        <ele>929</ele>
        <time>2010-05-11T12:50:45Z</time>
      </trkpt>
      <trkpt lat="46.62393" lon="6.04427">
        <ele>931</ele>
        <time>2010-05-11T12:50:45Z</time>
      </trkpt>
      <trkpt lat="46.62354" lon="6.04385">
        <ele>931</ele>
        <time>2010-05-11T12:50:45Z</time>
      </trkpt>
      <trkpt lat="46.62293" lon="6.04309">
        <ele>928</ele>
        <time>2010-05-11T12:50:45Z</time>
      </trkpt>
      <trkpt lat="46.62273" lon="6.04249">
        <ele>922</ele>
        <time>2010-05-11T12:50:45Z</time>
      </trkpt>
      <trkpt lat="46.62245" lon="6.04208">
        <ele>919</ele>
        <time>2010-05-11T12:50:45Z</time>
      </trkpt>
      <trkpt lat="46.62183" lon="6.04184">
        <ele>927</ele>
        <time>2010-05-11T12:50:45Z</time>
      </trkpt>
      <trkpt lat="46.6215" lon="6.04152">
        <ele>930</ele>
        <time>2010-05-11T12:50:45Z</time>
      </trkpt>
      <trkpt lat="46.62097" lon="6.04054">
        <ele>928</ele>
        <time>2010-05-11T12:50:45Z</time>
      </trkpt>
      <trkpt lat="46.62065" lon="6.0399">
        <ele>927</ele>
        <time>2010-05-11T12:50:45Z</time>
      </trkpt>
      <trkpt lat="46.62037" lon="6.03945">
        <ele>929</ele>
        <time>2010-05-11T12:50:45Z</time>
      </trkpt>
      <trkpt lat="46.62026" lon="6.03886">
        <ele>926</ele>
        <time>2010-05-11T12:50:45Z</time>
      </trkpt>
      <trkpt lat="46.61971" lon="6.0384">
        <ele>929</ele>
        <time>2010-05-11T12:50:45Z</time>
      </trkpt>
      <trkpt lat="46.61925" lon="6.03797">
        <ele>934</ele>
        <time>2010-05-11T12:50:45Z</time>
      </trkpt>
      <trkpt lat="46.61872" lon="6.03712">
        <ele>936</ele>
        <time>2010-05-11T12:50:45Z</time>
      </trkpt>
      <trkpt lat="46.61833" lon="6.03595">
        <ele>931</ele>
        <time>2010-05-11T12:50:45Z</time>
      </trkpt>
      <trkpt lat="46.61784" lon="6.03552">
        <ele>933</ele>
        <time>2010-05-11T12:50:45Z</time>
      </trkpt>
      <trkpt lat="46.61724" lon="6.0346">
        <ele>928</ele>
        <time>2010-05-11T12:50:45Z</time>
      </trkpt>
      <trkpt lat="46.6168" lon="6.03365">
        <ele>930</ele>
        <time>2010-05-11T12:50:45Z</time>
      </trkpt>
      <trkpt lat="46.61512" lon="6.03128">
        <ele>942</ele>
        <time>2010-05-11T12:50:45Z</time>
      </trkpt>
      <trkpt lat="46.61377" lon="6.02933">
        <ele>950</ele>
        <time>2010-05-11T12:50:45Z</time>
      </trkpt>
      <trkpt lat="46.61331" lon="6.02802">
        <ele>943</ele>
        <time>2010-05-11T12:50:45Z</time>
      </trkpt>
      <trkpt lat="46.61326" lon="6.02753">
        <ele>940</ele>
        <time>2010-05-11T12:50:45Z</time>
      </trkpt>
      <trkpt lat="46.61386" lon="6.02636">
        <ele>930</ele>
        <time>2010-05-11T12:50:45Z</time>
      </trkpt>
      <trkpt lat="46.61433" lon="6.02594">
        <ele>930</ele>
        <time>2010-05-11T12:50:45Z</time>
      </trkpt>
      <trkpt lat="46.61463" lon="6.0256">
        <ele>931</ele>
        <time>2010-05-11T12:50:45Z</time>
      </trkpt>
      <trkpt lat="46.61508" lon="6.02576">
        <ele>930</ele>
        <time>2010-05-11T12:50:45Z</time>
      </trkpt>
      <trkpt lat="46.61488" lon="6.02499">
        <ele>931</ele>
        <time>2010-05-11T12:50:45Z</time>
      </trkpt>
      <trkpt lat="46.61437" lon="6.02404">
        <ele>930</ele>
        <time>2010-05-11T12:50:45Z</time>
      </trkpt>
      <trkpt lat="46.61412" lon="6.02341">
        <ele>932</ele>
        <time>2010-05-11T12:50:45Z</time>
      </trkpt>
      <trkpt lat="46.61336" lon="6.02303">
        <ele>934</ele>
        <time>2010-05-11T12:50:45Z</time>
      </trkpt>
      <trkpt lat="46.61303" lon="6.02281">
        <ele>933</ele>
        <time>2010-05-11T12:50:45Z</time>
      </trkpt>
      <trkpt lat="46.61224" lon="6.02155">
        <ele>934</ele>
        <time>2010-05-11T12:50:45Z</time>
      </trkpt>
      <trkpt lat="46.60979" lon="6.0172">
        <ele>927</ele>
        <time>2010-05-11T12:50:45Z</time>
      </trkpt>
      <trkpt lat="46.60677" lon="6.0116">
        <ele>924</ele>
        <time>2010-05-11T12:50:45Z</time>
      </trkpt>
      <trkpt lat="46.60654" lon="6.01103">
        <ele>924</ele>
        <time>2010-05-11T12:50:45Z</time>
      </trkpt>
      <trkpt lat="46.60599" lon="6.0107">
        <ele>925</ele>
        <time>2010-05-11T12:50:45Z</time>
      </trkpt>
      <trkpt lat="46.60535" lon="6.00961">
        <ele>926</ele>
        <time>2010-05-11T12:50:45Z</time>
      </trkpt>
      <trkpt lat="46.60406" lon="6.00845">
        <ele>927</ele>
        <time>2010-05-11T12:50:45Z</time>
      </trkpt>
      <trkpt lat="46.60404" lon="6.00563">
        <ele>930</ele>
        <time>2010-05-11T12:50:45Z</time>
      </trkpt>
      <trkpt lat="46.60309" lon="6.0042">
        <ele>934</ele>
        <time>2010-05-11T12:50:45Z</time>
      </trkpt>
      <trkpt lat="46.60284" lon="6.00441">
        <ele>936</ele>
        <time>2010-05-11T12:50:45Z</time>
      </trkpt>
      <trkpt lat="46.60239" lon="6.00451">
        <ele>939</ele>
        <time>2010-05-11T12:50:45Z</time>
      </trkpt>
      <trkpt lat="46.60217" lon="6.00495">
        <ele>942</ele>
        <time>2010-05-11T12:50:45Z</time>
      </trkpt>
      <trkpt lat="46.6019" lon="6.00555">
        <ele>944</ele>
        <time>2010-05-11T12:50:45Z</time>
      </trkpt>
      <trkpt lat="46.60152" lon="6.00543">
        <ele>945</ele>
        <time>2010-05-11T12:50:45Z</time>
      </trkpt>
      <trkpt lat="46.60077" lon="6.00518">
        <ele>948</ele>
        <time>2010-05-11T12:50:45Z</time>
      </trkpt>
      <trkpt lat="46.60009" lon="6.00517">
        <ele>951</ele>
        <time>2010-05-11T12:50:45Z</time>
      </trkpt>
      <trkpt lat="46.59982" lon="6.00505">
        <ele>953</ele>
        <time>2010-05-11T12:50:45Z</time>
      </trkpt>
      <trkpt lat="46.59915" lon="6.00436">
        <ele>955</ele>
        <time>2010-05-11T12:50:45Z</time>
      </trkpt>
      <trkpt lat="46.59831" lon="6.00325">
        <ele>950</ele>
        <time>2010-05-11T12:50:45Z</time>
      </trkpt>
      <trkpt lat="46.59761" lon="6.00239">
        <ele>946</ele>
        <time>2010-05-11T12:50:45Z</time>
      </trkpt>
      <trkpt lat="46.59721" lon="6.00171">
        <ele>942</ele>
        <time>2010-05-11T12:50:45Z</time>
      </trkpt>
      <trkpt lat="46.59704" lon="6.00065">
        <ele>939</ele>
        <time>2010-05-11T12:50:45Z</time>
      </trkpt>
      <trkpt lat="46.59693" lon="5.99921">
        <ele>941</ele>
        <time>2010-05-11T12:50:45Z</time>
      </trkpt>
      <trkpt lat="46.5965" lon="5.99774">
        <ele>941</ele>
        <time>2010-05-11T12:50:45Z</time>
      </trkpt>
      <trkpt lat="46.59682" lon="5.99616">
        <ele>940</ele>
        <time>2010-05-11T12:50:45Z</time>
      </trkpt>
      <trkpt lat="46.59686" lon="5.99496">
        <ele>940</ele>
        <time>2010-05-11T12:50:45Z</time>
      </trkpt>
      <trkpt lat="46.59718" lon="5.99413">
        <ele>936</ele>
        <time>2010-05-11T12:50:45Z</time>
      </trkpt>
      <trkpt lat="46.59719" lon="5.99325">
        <ele>928</ele>
        <time>2010-05-11T12:50:45Z</time>
      </trkpt>
      <trkpt lat="46.59695" lon="5.99284">
        <ele>925</ele>
        <time>2010-05-11T12:50:45Z</time>
      </trkpt>
      <trkpt lat="46.59666" lon="5.99272">
        <ele>924</ele>
        <time>2010-05-11T12:50:45Z</time>
      </trkpt>
      <trkpt lat="46.59605" lon="5.99147">
        <ele>918</ele>
        <time>2010-05-11T12:50:45Z</time>
      </trkpt>
      <trkpt lat="46.59554" lon="5.99062">
        <ele>912</ele>
        <time>2010-05-11T12:50:45Z</time>
      </trkpt>
      <trkpt lat="46.59478" lon="5.98962">
        <ele>911</ele>
        <time>2010-05-11T12:50:45Z</time>
      </trkpt>
      <trkpt lat="46.59437" lon="5.98917">
        <ele>907</ele>
        <time>2010-05-11T12:50:45Z</time>
      </trkpt>
      <trkpt lat="46.59375" lon="5.98893">
        <ele>905</ele>
        <time>2010-05-11T12:50:45Z</time>
      </trkpt>
      <trkpt lat="46.59309" lon="5.98892">
        <ele>903</ele>
        <time>2010-05-11T12:50:45Z</time>
      </trkpt>
      <trkpt lat="46.59232" lon="5.98929">
        <ele>902</ele>
        <time>2010-05-11T12:50:45Z</time>
      </trkpt>
      <trkpt lat="46.59172" lon="5.98971">
        <ele>900</ele>
        <time>2010-05-11T12:50:45Z</time>
      </trkpt>
      <trkpt lat="46.59071" lon="5.98948">
        <ele>895</ele>
        <time>2010-05-11T12:50:45Z</time>
      </trkpt>
      <trkpt lat="46.59018" lon="5.98931">
        <ele>895</ele>
        <time>2010-05-11T12:50:45Z</time>
      </trkpt>
      <trkpt lat="46.58975" lon="5.98843">
        <ele>892</ele>
        <time>2010-05-11T12:50:45Z</time>
      </trkpt>
      <trkpt lat="46.58931" lon="5.98742">
        <ele>888</ele>
        <time>2010-05-11T12:50:45Z</time>
      </trkpt>
      <trkpt lat="46.58893" lon="5.98688">
        <ele>885</ele>
        <time>2010-05-11T12:50:45Z</time>
      </trkpt>
      <trkpt lat="46.58822" lon="5.9864">
        <ele>883</ele>
        <time>2010-05-11T12:50:45Z</time>
      </trkpt>
      <trkpt lat="46.58724" lon="5.98604">
        <ele>881</ele>
        <time>2010-05-11T12:50:45Z</time>
      </trkpt>
      <trkpt lat="46.58628" lon="5.98588">
        <ele>875</ele>
        <time>2010-05-11T12:50:45Z</time>
      </trkpt>
      <trkpt lat="46.58587" lon="5.98651">
        <ele>883</ele>
        <time>2010-05-11T12:50:45Z</time>
      </trkpt>
      <trkpt lat="46.58479" lon="5.98653">
        <ele>889</ele>
        <time>2010-05-11T12:50:45Z</time>
      </trkpt>
      <trkpt lat="46.58407" lon="5.98652">
        <ele>890</ele>
        <time>2010-05-11T12:50:45Z</time>
      </trkpt>
      <trkpt lat="46.58348" lon="5.98671">
        <ele>890</ele>
        <time>2010-05-11T12:50:45Z</time>
      </trkpt>
      <trkpt lat="46.58299" lon="5.98726">
        <ele>895</ele>
        <time>2010-05-11T12:50:45Z</time>
      </trkpt>
      <trkpt lat="46.58247" lon="5.98732">
        <ele>902</ele>
        <time>2010-05-11T12:50:45Z</time>
      </trkpt>
      <trkpt lat="46.58179" lon="5.98695">
        <ele>907</ele>
        <time>2010-05-11T12:50:45Z</time>
      </trkpt>
      <trkpt lat="46.58097" lon="5.9865">
        <ele>909</ele>
        <time>2010-05-11T12:50:45Z</time>
      </trkpt>
      <trkpt lat="46.5803" lon="5.98685">
        <ele>915</ele>
        <time>2010-05-11T12:50:45Z</time>
      </trkpt>
      <trkpt lat="46.57979" lon="5.9875">
        <ele>928</ele>
        <time>2010-05-11T12:50:45Z</time>
      </trkpt>
      <trkpt lat="46.57924" lon="5.98835">
        <ele>930</ele>
        <time>2010-05-11T12:50:45Z</time>
      </trkpt>
      <trkpt lat="46.57901" lon="5.98853">
        <ele>930</ele>
        <time>2010-05-11T12:50:45Z</time>
      </trkpt>
      <trkpt lat="46.57885" lon="5.98923">
        <ele>930</ele>
        <time>2010-05-11T12:50:45Z</time>
      </trkpt>
      <trkpt lat="46.57888" lon="5.98986">
        <ele>931</ele>
        <time>2010-05-11T12:50:45Z</time>
      </trkpt>
      <trkpt lat="46.57913" lon="5.99046">
        <ele>934</ele>
        <time>2010-05-11T12:50:45Z</time>
      </trkpt>
      <trkpt lat="46.57976" lon="5.99057">
        <ele>934</ele>
        <time>2010-05-11T12:50:45Z</time>
      </trkpt>
      <trkpt lat="46.5803" lon="5.99041">
        <ele>933</ele>
        <time>2010-05-11T12:50:45Z</time>
      </trkpt>
      <trkpt lat="46.58084" lon="5.98976">
        <ele>931</ele>
        <time>2010-05-11T12:50:45Z</time>
      </trkpt>
      <trkpt lat="46.58144" lon="5.98944">
        <ele>925</ele>
        <time>2010-05-11T12:50:45Z</time>
      </trkpt>
      <trkpt lat="46.58169" lon="5.98929">
        <ele>922</ele>
        <time>2010-05-11T12:50:45Z</time>
      </trkpt>
      <trkpt lat="46.58169" lon="5.98995">
        <ele>928</ele>
        <time>2010-05-11T12:50:45Z</time>
      </trkpt>
      <trkpt lat="46.58119" lon="5.99067">
        <ele>938</ele>
        <time>2010-05-11T12:50:45Z</time>
      </trkpt>
      <trkpt lat="46.58061" lon="5.99118">
        <ele>939</ele>
        <time>2010-05-11T12:50:45Z</time>
      </trkpt>
      <trkpt lat="46.58023" lon="5.992">
        <ele>941</ele>
        <time>2010-05-11T12:50:45Z</time>
      </trkpt>
      <trkpt lat="46.58007" lon="5.99278">
        <ele>945</ele>
        <time>2010-05-11T12:50:45Z</time>
      </trkpt>
      <trkpt lat="46.57958" lon="5.99333">
        <ele>948</ele>
        <time>2010-05-11T12:50:45Z</time>
      </trkpt>
      <trkpt lat="46.57903" lon="5.99408">
        <ele>954</ele>
        <time>2010-05-11T12:50:45Z</time>
      </trkpt>
      <trkpt lat="46.57867" lon="5.99497">
        <ele>964</ele>
        <time>2010-05-11T12:50:45Z</time>
      </trkpt>
      <trkpt lat="46.57867" lon="5.99549">
        <ele>963</ele>
        <time>2010-05-11T12:50:45Z</time>
      </trkpt>
      <trkpt lat="46.57872" lon="5.99618">
        <ele>963</ele>
        <time>2010-05-11T12:50:45Z</time>
      </trkpt>
      <trkpt lat="46.57855" lon="5.99715">
        <ele>964</ele>
        <time>2010-05-11T12:50:45Z</time>
      </trkpt>
      <trkpt lat="46.5781" lon="5.99856">
        <ele>967</ele>
        <time>2010-05-11T12:50:45Z</time>
      </trkpt>
      <trkpt lat="46.57786" lon="5.99916">
        <ele>969</ele>
        <time>2010-05-11T12:50:45Z</time>
      </trkpt>
      <trkpt lat="46.57761" lon="5.99993">
        <ele>973</ele>
        <time>2010-05-11T12:50:45Z</time>
      </trkpt>
      <trkpt lat="46.57762" lon="6.00097">
        <ele>978</ele>
        <time>2010-05-11T12:50:45Z</time>
      </trkpt>
      <trkpt lat="46.57756" lon="6.00227">
        <ele>977</ele>
        <time>2010-05-11T12:50:45Z</time>
      </trkpt>
      <trkpt lat="46.57773" lon="6.00398">
        <ele>977</ele>
        <time>2010-05-11T12:50:45Z</time>
      </trkpt>
      <trkpt lat="46.57771" lon="6.00594">
        <ele>987</ele>
        <time>2010-05-11T12:50:45Z</time>
      </trkpt>
      <trkpt lat="46.57732" lon="6.00755">
        <ele>988</ele>
        <time>2010-05-11T12:50:45Z</time>
      </trkpt>
      <trkpt lat="46.57666" lon="6.00897">
        <ele>981</ele>
        <time>2010-05-11T12:50:45Z</time>
      </trkpt>
      <trkpt lat="46.57604" lon="6.01073">
        <ele>987</ele>
        <time>2010-05-11T12:50:45Z</time>
      </trkpt>
      <trkpt lat="46.57586" lon="6.01153">
        <ele>993</ele>
        <time>2010-05-11T12:50:45Z</time>
      </trkpt>
      <trkpt lat="46.57565" lon="6.0124">
        <ele>999</ele>
        <time>2010-05-11T12:50:45Z</time>
      </trkpt>
      <trkpt lat="46.57565" lon="6.01328">
        <ele>1007</ele>
        <time>2010-05-11T12:50:45Z</time>
      </trkpt>
      <trkpt lat="46.57516" lon="6.01436">
        <ele>1014</ele>
        <time>2010-05-11T12:50:45Z</time>
      </trkpt>
      <trkpt lat="46.57446" lon="6.01509">
        <ele>1011</ele>
        <time>2010-05-11T12:50:45Z</time>
      </trkpt>
      <trkpt lat="46.57391" lon="6.01541">
        <ele>1011</ele>
        <time>2010-05-11T12:50:45Z</time>
      </trkpt>
      <trkpt lat="46.57319" lon="6.01625">
        <ele>1007</ele>
        <time>2010-05-11T12:50:45Z</time>
      </trkpt>
      <trkpt lat="46.57257" lon="6.01653">
        <ele>1006</ele>
        <time>2010-05-11T12:50:45Z</time>
      </trkpt>
      <trkpt lat="46.57217" lon="6.01716">
        <ele>1006</ele>
        <time>2010-05-11T12:50:45Z</time>
      </trkpt>
      <trkpt lat="46.57165" lon="6.01797">
        <ele>1007</ele>
        <time>2010-05-11T12:50:45Z</time>
      </trkpt>
      <trkpt lat="46.57109" lon="6.01832">
        <ele>1003</ele>
        <time>2010-05-11T12:50:45Z</time>
      </trkpt>
      <trkpt lat="46.57103" lon="6.01946">
        <ele>1000</ele>
        <time>2010-05-11T12:50:45Z</time>
      </trkpt>
      <trkpt lat="46.57062" lon="6.01986">
        <ele>999</ele>
        <time>2010-05-11T12:50:45Z</time>
      </trkpt>
      <trkpt lat="46.57018" lon="6.02071">
        <ele>1000</ele>
        <time>2010-05-11T12:50:45Z</time>
      </trkpt>
      <trkpt lat="46.56979" lon="6.0216">
        <ele>1000</ele>
        <time>2010-05-11T12:50:45Z</time>
      </trkpt>
      <trkpt lat="46.56962" lon="6.02221">
        <ele>998</ele>
        <time>2010-05-11T12:50:45Z</time>
      </trkpt>
      <trkpt lat="46.56944" lon="6.02353">
        <ele>992</ele>
        <time>2010-05-11T12:50:45Z</time>
      </trkpt>
      <trkpt lat="46.57045" lon="6.02905">
        <ele>976</ele>
        <time>2010-05-11T12:50:45Z</time>
      </trkpt>
      <trkpt lat="46.57079" lon="6.02908">
        <ele>979</ele>
        <time>2010-05-11T12:50:45Z</time>
      </trkpt>
      <trkpt lat="46.57124" lon="6.02979">
        <ele>984</ele>
        <time>2010-05-11T12:50:45Z</time>
      </trkpt>
      <trkpt lat="46.57203" lon="6.03037">
        <ele>991</ele>
        <time>2010-05-11T12:50:45Z</time>
      </trkpt>
      <trkpt lat="46.57248" lon="6.03047">
        <ele>996</ele>
        <time>2010-05-11T12:50:45Z</time>
      </trkpt>
      <trkpt lat="46.57282" lon="6.03117">
        <ele>998</ele>
        <time>2010-05-11T12:50:45Z</time>
      </trkpt>
      <trkpt lat="46.57314" lon="6.03175">
        <ele>998</ele>
        <time>2010-05-11T12:50:45Z</time>
      </trkpt>
      <trkpt lat="46.57304" lon="6.03325">
        <ele>990</ele>
        <time>2010-05-11T12:50:45Z</time>
      </trkpt>
      <trkpt lat="46.57352" lon="6.03449">
        <ele>990</ele>
        <time>2010-05-11T12:50:45Z</time>
      </trkpt>
      <trkpt lat="46.57381" lon="6.03539">
        <ele>992</ele>
        <time>2010-05-11T12:50:45Z</time>
      </trkpt>
      <trkpt lat="46.57383" lon="6.03598">
        <ele>994</ele>
        <time>2010-05-11T12:50:45Z</time>
      </trkpt>
      <trkpt lat="46.57412" lon="6.03675">
        <ele>996</ele>
        <time>2010-05-11T12:50:45Z</time>
      </trkpt>
      <trkpt lat="46.57408" lon="6.03871">
        <ele>1001</ele>
        <time>2010-05-11T12:50:45Z</time>
      </trkpt>
      <trkpt lat="46.57476" lon="6.04068">
        <ele>1008</ele>
        <time>2010-05-11T12:50:45Z</time>
      </trkpt>
      <trkpt lat="46.57464" lon="6.04299">
        <ele>1011</ele>
        <time>2010-05-11T12:50:45Z</time>
      </trkpt>
      <trkpt lat="46.57447" lon="6.04458">
        <ele>1019</ele>
        <time>2010-05-11T12:50:45Z</time>
      </trkpt>
      <trkpt lat="46.57465" lon="6.04544">
        <ele>1020</ele>
        <time>2010-05-11T12:50:45Z</time>
      </trkpt>
      <trkpt lat="46.57517" lon="6.04685">
        <ele>1020</ele>
        <time>2010-05-11T12:50:45Z</time>
      </trkpt>
      <trkpt lat="46.57537" lon="6.04817">
        <ele>1019</ele>
        <time>2010-05-11T12:50:45Z</time>
      </trkpt>
      <trkpt lat="46.57517" lon="6.04894">
        <ele>1020</ele>
        <time>2010-05-11T12:50:45Z</time>
      </trkpt>
      <trkpt lat="46.57506" lon="6.04932">
        <ele>1019</ele>
        <time>2010-05-11T12:50:45Z</time>
      </trkpt>
      <trkpt lat="46.57593" lon="6.05046">
        <ele>1022</ele>
        <time>2010-05-11T12:50:45Z</time>
      </trkpt>
      <trkpt lat="46.57659" lon="6.05096">
        <ele>1028</ele>
        <time>2010-05-11T12:50:45Z</time>
      </trkpt>
      <trkpt lat="46.57694" lon="6.0517">
        <ele>1031</ele>
        <time>2010-05-11T12:50:45Z</time>
      </trkpt>
      <trkpt lat="46.57748" lon="6.05197">
        <ele>1038</ele>
        <time>2010-05-11T12:50:45Z</time>
      </trkpt>
      <trkpt lat="46.5778" lon="6.05245">
        <ele>1042</ele>
        <time>2010-05-11T12:50:45Z</time>
      </trkpt>
      <trkpt lat="46.57814" lon="6.05237">
        <ele>1044</ele>
        <time>2010-05-11T12:50:45Z</time>
      </trkpt>
      <trkpt lat="46.57894" lon="6.05272">
        <ele>1048</ele>
        <time>2010-05-11T12:50:45Z</time>
      </trkpt>
      <trkpt lat="46.57835" lon="6.0534">
        <ele>1044</ele>
        <time>2010-05-11T12:50:45Z</time>
      </trkpt>
      <trkpt lat="46.57826" lon="6.05427">
        <ele>1044</ele>
        <time>2010-05-11T12:50:45Z</time>
      </trkpt>
      <trkpt lat="46.57809" lon="6.05518">
        <ele>1046</ele>
        <time>2010-05-11T12:50:45Z</time>
      </trkpt>
      <trkpt lat="46.57861" lon="6.05662">
        <ele>1052</ele>
        <time>2010-05-11T12:50:45Z</time>
      </trkpt>
      <trkpt lat="46.57896" lon="6.05821">
        <ele>1059</ele>
        <time>2010-05-11T12:50:45Z</time>
      </trkpt>
      <trkpt lat="46.57984" lon="6.06042">
        <ele>1071</ele>
        <time>2010-05-11T12:50:45Z</time>
      </trkpt>
      <trkpt lat="46.57985" lon="6.06124">
        <ele>1076</ele>
        <time>2010-05-11T12:50:45Z</time>
      </trkpt>
      <trkpt lat="46.57975" lon="6.06238">
        <ele>1081</ele>
        <time>2010-05-11T12:50:45Z</time>
      </trkpt>
      <trkpt lat="46.57958" lon="6.06279">
        <ele>1084</ele>
        <time>2010-05-11T12:50:45Z</time>
      </trkpt>
      <trkpt lat="46.57976" lon="6.06336">
        <ele>1086</ele>
        <time>2010-05-11T12:50:45Z</time>
      </trkpt>
      <trkpt lat="46.58041" lon="6.06481">
        <ele>1089</ele>
        <time>2010-05-11T12:50:45Z</time>
      </trkpt>
      <trkpt lat="46.58135" lon="6.06637">
        <ele>1092</ele>
        <time>2010-05-11T12:50:45Z</time>
      </trkpt>
      <trkpt lat="46.58171" lon="6.06712">
        <ele>1096</ele>
        <time>2010-05-11T12:50:45Z</time>
      </trkpt>
      <trkpt lat="46.58204" lon="6.06818">
        <ele>1103</ele>
        <time>2010-05-11T12:50:45Z</time>
      </trkpt>
      <trkpt lat="46.58259" lon="6.06923">
        <ele>1096</ele>
        <time>2010-05-11T12:50:45Z</time>
      </trkpt>
      <trkpt lat="46.58327" lon="6.06971">
        <ele>1086</ele>
        <time>2010-05-11T12:50:45Z</time>
      </trkpt>
      <trkpt lat="46.58355" lon="6.06999">
        <ele>1084</ele>
        <time>2010-05-11T12:50:45Z</time>
      </trkpt>
      <trkpt lat="46.58425" lon="6.07219">
        <ele>1086</ele>
        <time>2010-05-11T12:50:45Z</time>
      </trkpt>
      <trkpt lat="46.5841" lon="6.07336">
        <ele>1087</ele>
        <time>2010-05-11T12:50:45Z</time>
      </trkpt>
      <trkpt lat="46.58403" lon="6.07394">
        <ele>1087</ele>
        <time>2010-05-11T12:50:45Z</time>
      </trkpt>
      <trkpt lat="46.58423" lon="6.07477">
        <ele>1088</ele>
        <time>2010-05-11T12:50:45Z</time>
      </trkpt>
      <trkpt lat="46.58454" lon="6.07557">
        <ele>1089</ele>
        <time>2010-05-11T12:50:45Z</time>
      </trkpt>
      <trkpt lat="46.58478" lon="6.07585">
        <ele>1090</ele>
        <time>2010-05-11T12:50:45Z</time>
      </trkpt>
      <trkpt lat="46.58488" lon="6.07674">
        <ele>1093</ele>
        <time>2010-05-11T12:50:45Z</time>
      </trkpt>
      <trkpt lat="46.58482" lon="6.07726">
        <ele>1094</ele>
        <time>2010-05-11T12:50:45Z</time>
      </trkpt>
      <trkpt lat="46.58482" lon="6.07804">
        <ele>1096</ele>
        <time>2010-05-11T12:50:45Z</time>
      </trkpt>
      <trkpt lat="46.5849" lon="6.0789">
        <ele>1096</ele>
        <time>2010-05-11T12:50:45Z</time>
      </trkpt>
      <trkpt lat="46.58485" lon="6.07971">
        <ele>1096</ele>
        <time>2010-05-11T12:50:45Z</time>
      </trkpt>
      <trkpt lat="46.58515" lon="6.08035">
        <ele>1097</ele>
        <time>2010-05-11T12:50:45Z</time>
      </trkpt>
      <trkpt lat="46.58522" lon="6.08094">
        <ele>1097</ele>
        <time>2010-05-11T12:50:45Z</time>
      </trkpt>
      <trkpt lat="46.58521" lon="6.08196">
        <ele>1098</ele>
        <time>2010-05-11T12:50:45Z</time>
      </trkpt>
      <trkpt lat="46.5844" lon="6.0834">
        <ele>1101</ele>
        <time>2010-05-11T12:50:45Z</time>
      </trkpt>
      <trkpt lat="46.58423" lon="6.08424">
        <ele>1103</ele>
        <time>2010-05-11T12:50:45Z</time>
      </trkpt>
      <trkpt lat="46.58431" lon="6.08523">
        <ele>1103</ele>
        <time>2010-05-11T12:50:45Z</time>
      </trkpt>
      <trkpt lat="46.58469" lon="6.08688">
        <ele>1105</ele>
        <time>2010-05-11T12:50:45Z</time>
      </trkpt>
      <trkpt lat="46.58522" lon="6.08646">
        <ele>1109</ele>
        <time>2010-05-11T12:50:45Z</time>
      </trkpt>
      <trkpt lat="46.58581" lon="6.0869">
        <ele>1115</ele>
        <time>2010-05-11T12:50:45Z</time>
      </trkpt>
      <trkpt lat="46.58749" lon="6.08662">
        <ele>1116</ele>
        <time>2010-05-11T12:50:45Z</time>
      </trkpt>
      <trkpt lat="46.5879" lon="6.08714">
        <ele>1115</ele>
        <time>2010-05-11T12:50:45Z</time>
      </trkpt>
      <trkpt lat="46.58888" lon="6.08744">
        <ele>1111</ele>
        <time>2010-05-11T12:50:45Z</time>
      </trkpt>
      <trkpt lat="46.58945" lon="6.08712">
        <ele>1107</ele>
        <time>2010-05-11T12:50:45Z</time>
      </trkpt>
      <trkpt lat="46.58974" lon="6.08714">
        <ele>1103</ele>
        <time>2010-05-11T12:50:45Z</time>
      </trkpt>
      <trkpt lat="46.59014" lon="6.08798">
        <ele>1098</ele>
        <time>2010-05-11T12:50:45Z</time>
      </trkpt>
      <trkpt lat="46.59112" lon="6.08857">
        <ele>1083</ele>
        <time>2010-05-11T12:50:45Z</time>
      </trkpt>
      <trkpt lat="46.59132" lon="6.08927">
        <ele>1079</ele>
        <time>2010-05-11T12:50:45Z</time>
      </trkpt>
      <trkpt lat="46.59172" lon="6.09002">
        <ele>1079</ele>
        <time>2010-05-11T12:50:45Z</time>
      </trkpt>
      <trkpt lat="46.59273" lon="6.09025">
        <ele>1075</ele>
        <time>2010-05-11T12:50:45Z</time>
      </trkpt>
      <trkpt lat="46.59326" lon="6.09326">
        <ele>1080</ele>
        <time>2010-05-11T12:50:45Z</time>
      </trkpt>
      <trkpt lat="46.59318" lon="6.0944">
        <ele>1081</ele>
        <time>2010-05-11T12:50:45Z</time>
      </trkpt>
      <trkpt lat="46.59296" lon="6.09536">
        <ele>1084</ele>
        <time>2010-05-11T12:50:45Z</time>
      </trkpt>
      <trkpt lat="46.59332" lon="6.09627">
        <ele>1084</ele>
        <time>2010-05-11T12:50:45Z</time>
      </trkpt>
      <trkpt lat="46.59401" lon="6.09586">
        <ele>1086</ele>
        <time>2010-05-11T12:50:45Z</time>
      </trkpt>
      <trkpt lat="46.5951" lon="6.0961">
        <ele>1085</ele>
        <time>2010-05-11T12:50:45Z</time>
      </trkpt>
      <trkpt lat="46.59589" lon="6.09622">
        <ele>1086</ele>
        <time>2010-05-11T12:50:45Z</time>
      </trkpt>
      <trkpt lat="46.59636" lon="6.09563">
        <ele>1082</ele>
        <time>2010-05-11T12:50:45Z</time>
      </trkpt>
      <trkpt lat="46.59708" lon="6.09496">
        <ele>1075</ele>
        <time>2010-05-11T12:50:45Z</time>
      </trkpt>
      <trkpt lat="46.5977" lon="6.09501">
        <ele>1070</ele>
        <time>2010-05-11T12:50:45Z</time>
      </trkpt>
      <trkpt lat="46.59861" lon="6.09497">
        <ele>1066</ele>
        <time>2010-05-11T12:50:45Z</time>
      </trkpt>
      <trkpt lat="46.59874" lon="6.09488">
        <ele>1066</ele>
        <time>2010-05-11T12:50:45Z</time>
      </trkpt>
      <trkpt lat="46.59888" lon="6.0961">
        <ele>1065</ele>
        <time>2010-05-11T12:50:45Z</time>
      </trkpt>
      <trkpt lat="46.59911" lon="6.0968">
        <ele>1066</ele>
        <time>2010-05-11T12:50:45Z</time>
      </trkpt>
      <trkpt lat="46.59924" lon="6.09828">
        <ele>1070</ele>
        <time>2010-05-11T12:50:45Z</time>
      </trkpt>
      <trkpt lat="46.59945" lon="6.09937">
        <ele>1071</ele>
        <time>2010-05-11T12:50:45Z</time>
      </trkpt>
      <trkpt lat="46.6001" lon="6.10033">
        <ele>1074</ele>
        <time>2010-05-11T12:50:45Z</time>
      </trkpt>
      <trkpt lat="46.60045" lon="6.1013">
        <ele>1075</ele>
        <time>2010-05-11T12:50:45Z</time>
      </trkpt>
      <trkpt lat="46.60104" lon="6.1018">
        <ele>1074</ele>
        <time>2010-05-11T12:50:45Z</time>
      </trkpt>
      <trkpt lat="46.60157" lon="6.10262">
        <ele>1075</ele>
        <time>2010-05-11T12:50:45Z</time>
      </trkpt>
      <trkpt lat="46.60167" lon="6.10306">
        <ele>1076</ele>
        <time>2010-05-11T12:50:45Z</time>
      </trkpt>
      <trkpt lat="46.60132" lon="6.10352">
        <ele>1075</ele>
        <time>2010-05-11T12:50:45Z</time>
      </trkpt>
      <trkpt lat="46.60094" lon="6.10421">
        <ele>1076</ele>
        <time>2010-05-11T12:50:45Z</time>
      </trkpt>
      <trkpt lat="46.60052" lon="6.10454">
        <ele>1076</ele>
        <time>2010-05-11T12:50:45Z</time>
      </trkpt>
      <trkpt lat="46.60025" lon="6.10511">
        <ele>1077</ele>
        <time>2010-05-11T12:50:45Z</time>
      </trkpt>
      <trkpt lat="46.6003" lon="6.10587">
        <ele>1075</ele>
        <time>2010-05-11T12:50:45Z</time>
      </trkpt>
      <trkpt lat="46.60055" lon="6.10647">
        <ele>1072</ele>
        <time>2010-05-11T12:50:45Z</time>
      </trkpt>
      <trkpt lat="46.60069" lon="6.10691">
        <ele>1072</ele>
        <time>2010-05-11T12:50:45Z</time>
      </trkpt>
      <trkpt lat="46.60062" lon="6.10841">
        <ele>1072</ele>
        <time>2010-05-11T12:50:45Z</time>
      </trkpt>
      <trkpt lat="46.60022" lon="6.10946">
        <ele>1072</ele>
        <time>2010-05-11T12:50:45Z</time>
      </trkpt>
      <trkpt lat="46.5999" lon="6.11094">
        <ele>1077</ele>
        <time>2010-05-11T12:50:45Z</time>
      </trkpt>
      <trkpt lat="46.59963" lon="6.11222">
        <ele>1086</ele>
        <time>2010-05-11T12:50:45Z</time>
      </trkpt>
      <trkpt lat="46.59947" lon="6.11319">
        <ele>1089</ele>
        <time>2010-05-11T12:50:45Z</time>
      </trkpt>
      <trkpt lat="46.59895" lon="6.11388">
        <ele>1087</ele>
        <time>2010-05-11T12:50:45Z</time>
      </trkpt>
      <trkpt lat="46.59913" lon="6.11399">
        <ele>1087</ele>
        <time>2010-05-11T12:50:45Z</time>
      </trkpt>
      <trkpt lat="46.59976" lon="6.11442">
        <ele>1086</ele>
        <time>2010-05-11T12:50:45Z</time>
      </trkpt>
      <trkpt lat="46.60077" lon="6.11456">
        <ele>1084</ele>
        <time>2010-05-11T12:50:45Z</time>
      </trkpt>
      <trkpt lat="46.60146" lon="6.11412">
        <ele>1085</ele>
        <time>2010-05-11T12:50:45Z</time>
      </trkpt>
      <trkpt lat="46.60212" lon="6.11325">
        <ele>1085</ele>
        <time>2010-05-11T12:50:45Z</time>
      </trkpt>
      <trkpt lat="46.60321" lon="6.11251">
        <ele>1085</ele>
        <time>2010-05-11T12:50:45Z</time>
      </trkpt>
      <trkpt lat="46.60402" lon="6.11165">
        <ele>1089</ele>
        <time>2010-05-11T12:50:45Z</time>
      </trkpt>
      <trkpt lat="46.60454" lon="6.11152">
        <ele>1091</ele>
        <time>2010-05-11T12:50:45Z</time>
      </trkpt>
      <trkpt lat="46.60513" lon="6.11166">
        <ele>1094</ele>
        <time>2010-05-11T12:50:45Z</time>
      </trkpt>
      <trkpt lat="46.6059" lon="6.11211">
        <ele>1096</ele>
        <time>2010-05-11T12:50:45Z</time>
      </trkpt>
      <trkpt lat="46.60685" lon="6.1127">
        <ele>1093</ele>
        <time>2010-05-11T12:50:45Z</time>
      </trkpt>
      <trkpt lat="46.60761" lon="6.11285">
        <ele>1097</ele>
        <time>2010-05-11T12:50:45Z</time>
      </trkpt>
      <trkpt lat="46.608" lon="6.11336">
        <ele>1100</ele>
        <time>2010-05-11T12:50:45Z</time>
      </trkpt>
      <trkpt lat="46.6083" lon="6.11384">
        <ele>1100</ele>
        <time>2010-05-11T12:50:45Z</time>
      </trkpt>
      <trkpt lat="46.60859" lon="6.11432">
        <ele>1100</ele>
        <time>2010-05-11T12:50:45Z</time>
      </trkpt>
      <trkpt lat="46.60851" lon="6.1149">
        <ele>1101</ele>
        <time>2010-05-11T12:50:45Z</time>
      </trkpt>
      <trkpt lat="46.60821" lon="6.1156">
        <ele>1104</ele>
        <time>2010-05-11T12:50:45Z</time>
      </trkpt>
      <trkpt lat="46.60798" lon="6.11669">
        <ele>1105</ele>
        <time>2010-05-11T12:50:45Z</time>
      </trkpt>
      <trkpt lat="46.60823" lon="6.11724">
        <ele>1104</ele>
        <time>2010-05-11T12:50:45Z</time>
      </trkpt>
      <trkpt lat="46.60837" lon="6.11783">
        <ele>1105</ele>
        <time>2010-05-11T12:50:45Z</time>
      </trkpt>
      <trkpt lat="46.60875" lon="6.11845">
        <ele>1107</ele>
        <time>2010-05-11T12:50:45Z</time>
      </trkpt>
      <trkpt lat="46.60878" lon="6.11894">
        <ele>1108</ele>
        <time>2010-05-11T12:50:45Z</time>
      </trkpt>
      <trkpt lat="46.60915" lon="6.11933">
        <ele>1109</ele>
        <time>2010-05-11T12:50:45Z</time>
      </trkpt>
      <trkpt lat="46.60928" lon="6.12002">
        <ele>1110</ele>
        <time>2010-05-11T12:50:45Z</time>
      </trkpt>
      <trkpt lat="46.60972" lon="6.12035">
        <ele>1109</ele>
        <time>2010-05-11T12:50:45Z</time>
      </trkpt>
      <trkpt lat="46.6102" lon="6.12087">
        <ele>1106</ele>
        <time>2010-05-11T12:50:45Z</time>
      </trkpt>
      <trkpt lat="46.61076" lon="6.12173">
        <ele>1105</ele>
        <time>2010-05-11T12:50:45Z</time>
      </trkpt>
      <trkpt lat="46.61156" lon="6.12253">
        <ele>1108</ele>
        <time>2010-05-11T12:50:45Z</time>
      </trkpt>
      <trkpt lat="46.61181" lon="6.12255">
        <ele>1110</ele>
        <time>2010-05-11T12:50:45Z</time>
      </trkpt>
      <trkpt lat="46.61287" lon="6.12178">
        <ele>1117</ele>
        <time>2010-05-11T12:50:45Z</time>
      </trkpt>
      <trkpt lat="46.61316" lon="6.12189">
        <ele>1120</ele>
        <time>2010-05-11T12:50:45Z</time>
      </trkpt>
      <trkpt lat="46.61329" lon="6.12144">
        <ele>1121</ele>
        <time>2010-05-11T12:50:45Z</time>
      </trkpt>
      <trkpt lat="46.6137" lon="6.12128">
        <ele>1125</ele>
        <time>2010-05-11T12:50:45Z</time>
      </trkpt>
      <trkpt lat="46.61404" lon="6.12111">
        <ele>1127</ele>
        <time>2010-05-11T12:50:45Z</time>
      </trkpt>
      <trkpt lat="46.61441" lon="6.12093">
        <ele>1126</ele>
        <time>2010-05-11T12:50:45Z</time>
      </trkpt>
      <trkpt lat="46.61467" lon="6.12053">
        <ele>1123</ele>
        <time>2010-05-11T12:50:45Z</time>
      </trkpt>
      <trkpt lat="46.61563" lon="6.12017">
        <ele>1126</ele>
        <time>2010-05-11T12:50:45Z</time>
      </trkpt>
      <trkpt lat="46.61626" lon="6.11937">
        <ele>1123</ele>
        <time>2010-05-11T12:50:45Z</time>
      </trkpt>
      <trkpt lat="46.61701" lon="6.11935">
        <ele>1126</ele>
        <time>2010-05-11T12:50:45Z</time>
      </trkpt>
      <trkpt lat="46.6176" lon="6.11907">
        <ele>1127</ele>
        <time>2010-05-11T12:50:45Z</time>
      </trkpt>
      <trkpt lat="46.61884" lon="6.11504">
        <ele>1125</ele>
        <time>2010-05-11T12:50:45Z</time>
      </trkpt>
      <trkpt lat="46.61942" lon="6.1153">
        <ele>1128</ele>
        <time>2010-05-11T12:50:45Z</time>
      </trkpt>
      <trkpt lat="46.61971" lon="6.11539">
        <ele>1130</ele>
        <time>2010-05-11T12:50:45Z</time>
      </trkpt>
      <trkpt lat="46.62003" lon="6.11525">
        <ele>1132</ele>
        <time>2010-05-11T12:50:45Z</time>
      </trkpt>
      <trkpt lat="46.62037" lon="6.1157">
        <ele>1137</ele>
        <time>2010-05-11T12:50:45Z</time>
      </trkpt>
      <trkpt lat="46.62105" lon="6.11506">
        <ele>1134</ele>
        <time>2010-05-11T12:50:45Z</time>
      </trkpt>
      <trkpt lat="46.62155" lon="6.11477">
        <ele>1132</ele>
        <time>2010-05-11T12:50:45Z</time>
      </trkpt>
      <trkpt lat="46.62187" lon="6.11407">
        <ele>1128</ele>
        <time>2010-05-11T12:50:45Z</time>
      </trkpt>
      <trkpt lat="46.62259" lon="6.11412">
        <ele>1129</ele>
        <time>2010-05-11T12:50:45Z</time>
      </trkpt>
      <trkpt lat="46.62293" lon="6.11388">
        <ele>1128</ele>
        <time>2010-05-11T12:50:45Z</time>
      </trkpt>
      <trkpt lat="46.62311" lon="6.1139">
        <ele>1127</ele>
        <time>2010-05-11T12:50:45Z</time>
      </trkpt>
      <trkpt lat="46.62373" lon="6.11289">
        <ele>1129</ele>
        <time>2010-05-11T12:50:45Z</time>
      </trkpt>
      <trkpt lat="46.62339" lon="6.11231">
        <ele>1129</ele>
        <time>2010-05-11T12:50:45Z</time>
      </trkpt>
      <trkpt lat="46.62368" lon="6.11096">
        <ele>1142</ele>
        <time>2010-05-11T12:50:45Z</time>
      </trkpt>
      <trkpt lat="46.62376" lon="6.11002">
        <ele>1146</ele>
        <time>2010-05-11T12:50:45Z</time>
      </trkpt>
      <trkpt lat="46.62419" lon="6.10926">
        <ele>1149</ele>
        <time>2010-05-11T12:50:45Z</time>
      </trkpt>
      <trkpt lat="46.62477" lon="6.10934">
        <ele>1151</ele>
        <time>2010-05-11T12:50:45Z</time>
      </trkpt>
      <trkpt lat="46.62555" lon="6.10884">
        <ele>1158</ele>
        <time>2010-05-11T12:50:45Z</time>
      </trkpt>
      <trkpt lat="46.62612" lon="6.10881">
        <ele>1162</ele>
        <time>2010-05-11T12:50:45Z</time>
      </trkpt>
      <trkpt lat="46.62669" lon="6.10931">
        <ele>1166</ele>
        <time>2010-05-11T12:50:45Z</time>
      </trkpt>
      <trkpt lat="46.62743" lon="6.1092">
        <ele>1172</ele>
        <time>2010-05-11T12:50:45Z</time>
      </trkpt>
      <trkpt lat="46.62812" lon="6.1082">
        <ele>1178</ele>
        <time>2010-05-11T12:50:45Z</time>
      </trkpt>
      <trkpt lat="46.6285" lon="6.10822">
        <ele>1181</ele>
        <time>2010-05-11T12:50:45Z</time>
      </trkpt>
      <trkpt lat="46.62888" lon="6.10838">
        <ele>1186</ele>
        <time>2010-05-11T12:50:45Z</time>
      </trkpt>
      <trkpt lat="46.62925" lon="6.10864">
        <ele>1192</ele>
        <time>2010-05-11T12:50:45Z</time>
      </trkpt>
      <trkpt lat="46.63009" lon="6.10994">
        <ele>1198</ele>
        <time>2010-05-11T12:50:45Z</time>
      </trkpt>
      <trkpt lat="46.63058" lon="6.11059">
        <ele>1200</ele>
        <time>2010-05-11T12:50:45Z</time>
      </trkpt>
      <trkpt lat="46.63082" lon="6.11172">
        <ele>1201</ele>
        <time>2010-05-11T12:50:45Z</time>
      </trkpt>
      <trkpt lat="46.63131" lon="6.11313">
        <ele>1208</ele>
        <time>2010-05-11T12:50:45Z</time>
      </trkpt>
      <trkpt lat="46.63182" lon="6.11329">
        <ele>1208</ele>
        <time>2010-05-11T12:50:45Z</time>
      </trkpt>
      <trkpt lat="46.63231" lon="6.11297">
        <ele>1202</ele>
        <time>2010-05-11T12:50:45Z</time>
      </trkpt>
      <trkpt lat="46.63293" lon="6.11177">
        <ele>1199</ele>
        <time>2010-05-11T12:50:45Z</time>
      </trkpt>
      <trkpt lat="46.63334" lon="6.11157">
        <ele>1196</ele>
        <time>2010-05-11T12:50:45Z</time>
      </trkpt>
      <trkpt lat="46.63427" lon="6.10931">
        <ele>1199</ele>
        <time>2010-05-11T12:50:45Z</time>
      </trkpt>
      <trkpt lat="46.63467" lon="6.10898">
        <ele>1202</ele>
        <time>2010-05-11T12:50:45Z</time>
      </trkpt>
      <trkpt lat="46.63517" lon="6.10934">
        <ele>1202</ele>
        <time>2010-05-11T12:50:45Z</time>
      </trkpt>
      <trkpt lat="46.63566" lon="6.10954">
        <ele>1204</ele>
        <time>2010-05-11T12:50:45Z</time>
      </trkpt>
      <trkpt lat="46.63579" lon="6.10978">
        <ele>1205</ele>
        <time>2010-05-11T12:50:45Z</time>
      </trkpt>
      <trkpt lat="46.63564" lon="6.11147">
        <ele>1205</ele>
        <time>2010-05-11T12:50:45Z</time>
      </trkpt>
      <trkpt lat="46.63583" lon="6.11184">
        <ele>1205</ele>
        <time>2010-05-11T12:50:45Z</time>
      </trkpt>
      <trkpt lat="46.63672" lon="6.11223">
        <ele>1207</ele>
        <time>2010-05-11T12:50:45Z</time>
      </trkpt>
      <trkpt lat="46.63727" lon="6.11328">
        <ele>1204</ele>
        <time>2010-05-11T12:50:45Z</time>
      </trkpt>
      <trkpt lat="46.63779" lon="6.11384">
        <ele>1209</ele>
        <time>2010-05-11T12:50:45Z</time>
      </trkpt>
      <trkpt lat="46.63814" lon="6.11481">
        <ele>1211</ele>
        <time>2010-05-11T12:50:45Z</time>
      </trkpt>
      <trkpt lat="46.63836" lon="6.11574">
        <ele>1211</ele>
        <time>2010-05-11T12:50:45Z</time>
      </trkpt>
      <trkpt lat="46.63872" lon="6.11724">
        <ele>1210</ele>
        <time>2010-05-11T12:50:45Z</time>
      </trkpt>
      <trkpt lat="46.63919" lon="6.1178">
        <ele>1212</ele>
        <time>2010-05-11T12:50:45Z</time>
      </trkpt>
      <trkpt lat="46.63972" lon="6.11826">
        <ele>1213</ele>
        <time>2010-05-11T12:50:45Z</time>
      </trkpt>
      <trkpt lat="46.6403" lon="6.11853">
        <ele>1210</ele>
        <time>2010-05-11T12:50:45Z</time>
      </trkpt>
      <trkpt lat="46.6407" lon="6.11859">
        <ele>1209</ele>
        <time>2010-05-11T12:50:45Z</time>
      </trkpt>
      <trkpt lat="46.64129" lon="6.11827">
        <ele>1213</ele>
        <time>2010-05-11T12:50:45Z</time>
      </trkpt>
      <trkpt lat="46.64189" lon="6.11805">
        <ele>1212</ele>
        <time>2010-05-11T12:50:45Z</time>
      </trkpt>
      <trkpt lat="46.64244" lon="6.11766">
        <ele>1208</ele>
        <time>2010-05-11T12:50:45Z</time>
      </trkpt>
      <trkpt lat="46.64318" lon="6.11716">
        <ele>1202</ele>
        <time>2010-05-11T12:50:45Z</time>
      </trkpt>
      <trkpt lat="46.64381" lon="6.11655">
        <ele>1195</ele>
        <time>2010-05-11T12:50:45Z</time>
      </trkpt>
      <trkpt lat="46.64434" lon="6.11459">
        <ele>1195</ele>
        <time>2010-05-11T12:50:45Z</time>
      </trkpt>
      <trkpt lat="46.64502" lon="6.1132">
        <ele>1192</ele>
        <time>2010-05-11T12:50:45Z</time>
      </trkpt>
      <trkpt lat="46.6455" lon="6.11163">
        <ele>1197</ele>
        <time>2010-05-11T12:50:45Z</time>
      </trkpt>
      <trkpt lat="46.64599" lon="6.1099">
        <ele>1205</ele>
        <time>2010-05-11T12:50:45Z</time>
      </trkpt>
      <trkpt lat="46.64616" lon="6.10746">
        <ele>1205</ele>
        <time>2010-05-11T12:50:45Z</time>
      </trkpt>
      <trkpt lat="46.6461" lon="6.10566">
        <ele>1199</ele>
        <time>2010-05-11T12:50:45Z</time>
      </trkpt>
      <trkpt lat="46.64593" lon="6.10473">
        <ele>1193</ele>
        <time>2010-05-11T12:50:45Z</time>
      </trkpt>
      <trkpt lat="46.6454" lon="6.10388">
        <ele>1193</ele>
        <time>2010-05-11T12:50:45Z</time>
      </trkpt>
      <trkpt lat="46.64486" lon="6.10322">
        <ele>1195</ele>
        <time>2010-05-11T12:50:45Z</time>
      </trkpt>
      <trkpt lat="46.64476" lon="6.10272">
        <ele>1190</ele>
        <time>2010-05-11T12:50:45Z</time>
      </trkpt>
      <trkpt lat="46.64437" lon="6.10214">
        <ele>1191</ele>
        <time>2010-05-11T12:50:45Z</time>
      </trkpt>
      <trkpt lat="46.64409" lon="6.10127">
        <ele>1194</ele>
        <time>2010-05-11T12:50:45Z</time>
      </trkpt>
      <trkpt lat="46.64353" lon="6.10025">
        <ele>1182</ele>
        <time>2010-05-11T12:50:45Z</time>
      </trkpt>
      <trkpt lat="46.64295" lon="6.09942">
        <ele>1183</ele>
        <time>2010-05-11T12:50:45Z</time>
      </trkpt>
      <trkpt lat="46.64237" lon="6.09798">
        <ele>1184</ele>
        <time>2010-05-11T12:50:45Z</time>
      </trkpt>
      <trkpt lat="46.64202" lon="6.09697">
        <ele>1176</ele>
        <time>2010-05-11T12:50:45Z</time>
      </trkpt>
      <trkpt lat="46.64188" lon="6.09654">
        <ele>1173</ele>
        <time>2010-05-11T12:50:45Z</time>
      </trkpt>
      <trkpt lat="46.64235" lon="6.09461">
        <ele>1168</ele>
        <time>2010-05-11T12:50:45Z</time>
      </trkpt>
      <trkpt lat="46.64248" lon="6.09413">
        <ele>1169</ele>
        <time>2010-05-11T12:50:45Z</time>
      </trkpt>
      <trkpt lat="46.64272" lon="6.09427">
        <ele>1170</ele>
        <time>2010-05-11T12:50:45Z</time>
      </trkpt>
      <trkpt lat="46.64325" lon="6.09326">
        <ele>1171</ele>
        <time>2010-05-11T12:50:45Z</time>
      </trkpt>
      <trkpt lat="46.64409" lon="6.09352">
        <ele>1172</ele>
        <time>2010-05-11T12:50:45Z</time>
      </trkpt>
      <trkpt lat="46.64544" lon="6.09231">
        <ele>1140</ele>
        <time>2010-05-11T12:50:45Z</time>
      </trkpt>
      <trkpt lat="46.64571" lon="6.09177">
        <ele>1131</ele>
        <time>2010-05-11T12:50:45Z</time>
      </trkpt>
      <trkpt lat="46.64577" lon="6.09125">
        <ele>1123</ele>
        <time>2010-05-11T12:50:45Z</time>
      </trkpt>
      <trkpt lat="46.64615" lon="6.09128">
        <ele>1118</ele>
        <time>2010-05-11T12:50:45Z</time>
      </trkpt>
      <trkpt lat="46.64621" lon="6.09082">
        <ele>1110</ele>
        <time>2010-05-11T12:50:45Z</time>
      </trkpt>
      <trkpt lat="46.64634" lon="6.09021">
        <ele>1097</ele>
        <time>2010-05-11T12:50:45Z</time>
      </trkpt>
      <trkpt lat="46.64653" lon="6.08921">
        <ele>1088</ele>
        <time>2010-05-11T12:50:45Z</time>
      </trkpt>
      <trkpt lat="46.64665" lon="6.08899">
        <ele>1087</ele>
        <time>2010-05-11T12:50:45Z</time>
      </trkpt>
      <trkpt lat="46.64711" lon="6.08879">
        <ele>1076</ele>
        <time>2010-05-11T12:50:45Z</time>
      </trkpt>
      <trkpt lat="46.6487" lon="6.08916">
        <ele>1041</ele>
        <time>2010-05-11T12:50:45Z</time>
      </trkpt>
      <trkpt lat="46.64942" lon="6.08771">
        <ele>1022</ele>
        <time>2010-05-11T12:50:45Z</time>
      </trkpt>
      <trkpt lat="46.64982" lon="6.08731">
        <ele>1018</ele>
        <time>2010-05-11T12:50:45Z</time>
      </trkpt>
      <trkpt lat="46.65002" lon="6.0872">
        <ele>1018</ele>
        <time>2010-05-11T12:50:45Z</time>
      </trkpt>
      <trkpt lat="46.64964" lon="6.08567">
        <ele>1018</ele>
        <time>2010-05-11T12:50:45Z</time>
      </trkpt>
      <trkpt lat="46.64934" lon="6.08466">
        <ele>1014</ele>
        <time>2010-05-11T12:50:45Z</time>
      </trkpt>
      <trkpt lat="46.64883" lon="6.08365">
        <ele>1011</ele>
        <time>2010-05-11T12:50:45Z</time>
      </trkpt>
      <trkpt lat="46.64869" lon="6.08197">
        <ele>1005</ele>
        <time>2010-05-11T12:50:45Z</time>
      </trkpt>
      <trkpt lat="46.64875" lon="6.08145">
        <ele>1003</ele>
        <time>2010-05-11T12:50:45Z</time>
      </trkpt>
      <trkpt lat="46.65028" lon="6.07995">
        <ele>988</ele>
        <time>2010-05-11T12:50:45Z</time>
      </trkpt>
      <trkpt lat="46.65073" lon="6.07999">
        <ele>989</ele>
        <time>2010-05-11T12:50:45Z</time>
      </trkpt>
      <trkpt lat="46.65131" lon="6.07944">
        <ele>983</ele>
        <time>2010-05-11T12:50:45Z</time>
      </trkpt>
      <trkpt lat="46.65185" lon="6.07813">
        <ele>965</ele>
        <time>2010-05-11T12:50:45Z</time>
      </trkpt>
      <trkpt lat="46.65267" lon="6.07727">
        <ele>946</ele>
        <time>2010-05-11T12:50:45Z</time>
      </trkpt>
      <trkpt lat="46.6528" lon="6.07656">
        <ele>940</ele>
        <time>2010-05-11T12:50:45Z</time>
      </trkpt>
      <trkpt lat="46.6542" lon="6.07512">
        <ele>941</ele>
        <time>2010-05-11T12:50:45Z</time>
      </trkpt>
      <trkpt lat="46.65445" lon="6.07495">
        <ele>938</ele>
        <time>2010-05-11T12:50:45Z</time>
      </trkpt>
      <trkpt lat="46.6551" lon="6.07578">
        <ele>931</ele>
        <time>2010-05-11T12:50:45Z</time>
      </trkpt>
      <trkpt lat="46.6559" lon="6.07681">
        <ele>925</ele>
        <time>2010-05-11T12:50:45Z</time>
      </trkpt>
      <trkpt lat="46.65675" lon="6.0771">
        <ele>911</ele>
        <time>2010-05-11T12:50:45Z</time>
      </trkpt>
      <trkpt lat="46.65652" lon="6.07646">
        <ele>908</ele>
        <time>2010-05-11T12:50:45Z</time>
      </trkpt>
      <trkpt lat="46.65665" lon="6.07601">
        <ele>898</ele>
        <time>2010-05-11T12:50:45Z</time>
      </trkpt>
      <trkpt lat="46.65689" lon="6.0761">
        <ele>893</ele>
        <time>2010-05-11T12:50:45Z</time>
      </trkpt>
      <trkpt lat="46.65724" lon="6.07654">
        <ele>890</ele>
        <time>2010-05-11T12:50:45Z</time>
      </trkpt>
      <trkpt lat="46.65752" lon="6.07702">
        <ele>890</ele>
        <time>2010-05-11T12:50:45Z</time>
      </trkpt>
      <trkpt lat="46.65826" lon="6.07707">
        <ele>873</ele>
        <time>2010-05-11T12:50:45Z</time>
      </trkpt>
      <trkpt lat="46.65877" lon="6.07662">
        <ele>870</ele>
        <time>2010-05-11T12:50:45Z</time>
      </trkpt>
      <trkpt lat="46.65908" lon="6.07615">
        <ele>871</ele>
        <time>2010-05-11T12:50:45Z</time>
      </trkpt>
      <trkpt lat="46.65911" lon="6.07573">
        <ele>866</ele>
        <time>2010-05-11T12:50:45Z</time>
      </trkpt>
      <trkpt lat="46.6596" lon="6.07562">
        <ele>866</ele>
        <time>2010-05-11T12:50:45Z</time>
      </trkpt>
      <trkpt lat="46.65911" lon="6.07572">
        <ele>865.6</ele>
      </trkpt>
      <trkpt lat="46.65999" lon="6.07561">
        <ele>866</ele>
        <time>2010-05-11T12:50:45Z</time>
      </trkpt>
      <trkpt lat="46.66056" lon="6.07619">
        <ele>869</ele>
        <time>2010-05-11T12:50:45Z</time>
      </trkpt>
      <trkpt lat="46.66118" lon="6.07674">
        <ele>874</ele>
        <time>2010-05-11T12:50:45Z</time>
      </trkpt>
      <trkpt lat="46.66142" lon="6.07723">
        <ele>875</ele>
        <time>2010-05-11T12:50:45Z</time>
      </trkpt>
      <trkpt lat="46.66168" lon="6.07784">
        <ele>880</ele>
        <time>2010-05-11T12:50:45Z</time>
      </trkpt>
      <trkpt lat="46.66194" lon="6.07872">
        <ele>882</ele>
        <time>2010-05-11T12:50:45Z</time>
      </trkpt>
      <trkpt lat="46.66217" lon="6.07961">
        <ele>882</ele>
        <time>2010-05-11T12:50:45Z</time>
      </trkpt>
      <trkpt lat="46.66279" lon="6.08196">
        <ele>887</ele>
        <time>2010-05-11T12:50:45Z</time>
      </trkpt>
      <trkpt lat="46.66332" lon="6.0823">
        <ele>895</ele>
        <time>2010-05-11T12:50:45Z</time>
      </trkpt>
      <trkpt lat="46.66352" lon="6.08349">
        <ele>897</ele>
        <time>2010-05-11T12:50:45Z</time>
      </trkpt>
      <trkpt lat="46.66496" lon="6.08483">
        <ele>908</ele>
        <time>2010-05-11T12:50:45Z</time>
      </trkpt>
      <trkpt lat="46.66559" lon="6.08612">
        <ele>901</ele>
        <time>2010-05-11T12:50:45Z</time>
      </trkpt>
      <trkpt lat="46.66641" lon="6.08797">
        <ele>905</ele>
        <time>2010-05-11T12:50:45Z</time>
      </trkpt>
      <trkpt lat="46.66685" lon="6.08781">
        <ele>916</ele>
        <time>2010-05-11T12:50:45Z</time>
      </trkpt>
      <trkpt lat="46.66632" lon="6.08538">
        <ele>925</ele>
        <time>2010-05-11T12:50:45Z</time>
      </trkpt>
      <trkpt lat="46.66609" lon="6.08465">
        <ele>926</ele>
        <time>2010-05-11T12:50:45Z</time>
      </trkpt>
      <trkpt lat="46.66564" lon="6.08465">
        <ele>923</ele>
        <time>2010-05-11T12:50:45Z</time>
      </trkpt>
      <trkpt lat="46.66532" lon="6.08433">
        <ele>923</ele>
        <time>2010-05-11T12:50:45Z</time>
      </trkpt>
      <trkpt lat="46.66541" lon="6.08365">
        <ele>925</ele>
        <time>2010-05-11T12:50:45Z</time>
      </trkpt>
      <trkpt lat="46.66654" lon="6.08393">
        <ele>934</ele>
        <time>2010-05-11T12:50:45Z</time>
      </trkpt>
      <trkpt lat="46.66697" lon="6.08553">
        <ele>940</ele>
        <time>2010-05-11T12:50:45Z</time>
      </trkpt>
      <trkpt lat="46.66721" lon="6.08642">
        <ele>939</ele>
        <time>2010-05-11T12:50:45Z</time>
      </trkpt>
      <trkpt lat="46.66781" lon="6.08709">
        <ele>941</ele>
        <time>2010-05-11T12:50:45Z</time>
      </trkpt>
      <trkpt lat="46.66829" lon="6.08836">
        <ele>951</ele>
        <time>2010-05-11T12:50:45Z</time>
      </trkpt>
      <trkpt lat="46.66861" lon="6.08956">
        <ele>960</ele>
        <time>2010-05-11T12:50:45Z</time>
      </trkpt>
      <trkpt lat="46.66888" lon="6.08971">
        <ele>959</ele>
        <time>2010-05-11T12:50:45Z</time>
      </trkpt>
      <trkpt lat="46.66982" lon="6.08919">
        <ele>969</ele>
        <time>2010-05-11T12:50:45Z</time>
      </trkpt>
      <trkpt lat="46.67022" lon="6.08866">
        <ele>975</ele>
        <time>2010-05-11T12:50:45Z</time>
      </trkpt>
      <trkpt lat="46.67072" lon="6.08857">
        <ele>983</ele>
        <time>2010-05-11T12:50:45Z</time>
      </trkpt>
      <trkpt lat="46.6711" lon="6.08781">
        <ele>992</ele>
        <time>2010-05-11T12:50:45Z</time>
      </trkpt>
      <trkpt lat="46.67116" lon="6.08673">
        <ele>996</ele>
        <time>2010-05-11T12:50:45Z</time>
      </trkpt>
      <trkpt lat="46.67113" lon="6.08565">
        <ele>998</ele>
        <time>2010-05-11T12:50:45Z</time>
      </trkpt>
      <trkpt lat="46.67105" lon="6.08515">
        <ele>1000</ele>
        <time>2010-05-11T12:50:45Z</time>
      </trkpt>
      <trkpt lat="46.67113" lon="6.08411">
        <ele>1000</ele>
        <time>2010-05-11T12:50:45Z</time>
      </trkpt>
      <trkpt lat="46.67132" lon="6.08328">
        <ele>1003</ele>
        <time>2010-05-11T12:50:45Z</time>
      </trkpt>
      <trkpt lat="46.67177" lon="6.08311">
        <ele>1007</ele>
        <time>2010-05-11T12:50:45Z</time>
      </trkpt>
      <trkpt lat="46.67219" lon="6.0834">
        <ele>1011</ele>
        <time>2010-05-11T12:50:45Z</time>
      </trkpt>
      <trkpt lat="46.67235" lon="6.08338">
        <ele>1014</ele>
        <time>2010-05-11T12:50:45Z</time>
      </trkpt>
      <trkpt lat="46.67241" lon="6.08289">
        <ele>1019</ele>
        <time>2010-05-11T12:50:45Z</time>
      </trkpt>
      <trkpt lat="46.67326" lon="6.08174">
        <ele>1030</ele>
        <time>2010-05-11T12:50:45Z</time>
      </trkpt>
      <trkpt lat="46.67339" lon="6.08126">
        <ele>1030</ele>
        <time>2010-05-11T12:50:45Z</time>
      </trkpt>
      <trkpt lat="46.67307" lon="6.08055">
        <ele>1036</ele>
        <time>2010-05-11T12:50:45Z</time>
      </trkpt>
      <trkpt lat="46.6732" lon="6.07945">
        <ele>1040</ele>
        <time>2010-05-11T12:50:45Z</time>
      </trkpt>
      <trkpt lat="46.67347" lon="6.07865">
        <ele>1040</ele>
        <time>2010-05-11T12:50:45Z</time>
      </trkpt>
      <trkpt lat="46.67399" lon="6.07793">
        <ele>1040</ele>
        <time>2010-05-11T12:50:45Z</time>
      </trkpt>
      <trkpt lat="46.67337" lon="6.07763">
        <ele>1038</ele>
        <time>2010-05-11T12:50:45Z</time>
      </trkpt>
      <trkpt lat="46.67307" lon="6.07653">
        <ele>1038</ele>
        <time>2010-05-11T12:50:45Z</time>
      </trkpt>
      <trkpt lat="46.67264" lon="6.07604">
        <ele>1037</ele>
        <time>2010-05-11T12:50:45Z</time>
      </trkpt>
      <trkpt lat="46.67275" lon="6.07386">
        <ele>1040</ele>
        <time>2010-05-11T12:50:45Z</time>
      </trkpt>
      <trkpt lat="46.672" lon="6.0721">
        <ele>1032</ele>
        <time>2010-05-11T12:50:45Z</time>
      </trkpt>
      <trkpt lat="46.6715" lon="6.07069">
        <ele>1020</ele>
        <time>2010-05-11T12:50:45Z</time>
      </trkpt>
      <trkpt lat="46.67074" lon="6.06874">
        <ele>1020</ele>
        <time>2010-05-11T12:50:45Z</time>
      </trkpt>
      <trkpt lat="46.67038" lon="6.06725">
        <ele>1024</ele>
        <time>2010-05-11T12:50:45Z</time>
      </trkpt>
      <trkpt lat="46.66998" lon="6.06568">
        <ele>1033</ele>
        <time>2010-05-11T12:50:45Z</time>
      </trkpt>
      <trkpt lat="46.6697" lon="6.06396">
        <ele>1039</ele>
        <time>2010-05-11T12:50:45Z</time>
      </trkpt>
      <trkpt lat="46.66995" lon="6.06241">
        <ele>1039</ele>
        <time>2010-05-11T12:50:45Z</time>
      </trkpt>
      <trkpt lat="46.66991" lon="6.06107">
        <ele>1047</ele>
        <time>2010-05-11T12:50:45Z</time>
      </trkpt>
      <trkpt lat="46.66998" lon="6.06025">
        <ele>1049</ele>
        <time>2010-05-11T12:50:45Z</time>
      </trkpt>
      <trkpt lat="46.6704" lon="6.05959">
        <ele>1048</ele>
        <time>2010-05-11T12:50:45Z</time>
      </trkpt>
      <trkpt lat="46.67001" lon="6.05852">
        <ele>1046</ele>
        <time>2010-05-11T12:50:45Z</time>
      </trkpt>
      <trkpt lat="46.66981" lon="6.05772">
        <ele>1044</ele>
        <time>2010-05-11T12:50:45Z</time>
      </trkpt>
      <trkpt lat="46.66943" lon="6.05698">
        <ele>1043</ele>
        <time>2010-05-11T12:50:45Z</time>
      </trkpt>
      <trkpt lat="46.66919" lon="6.05608">
        <ele>1044</ele>
        <time>2010-05-11T12:50:45Z</time>
      </trkpt>
      <trkpt lat="46.66913" lon="6.05525">
        <ele>1046</ele>
        <time>2010-05-11T12:50:45Z</time>
      </trkpt>
      <trkpt lat="46.66867" lon="6.05398">
        <ele>1048</ele>
        <time>2010-05-11T12:50:45Z</time>
      </trkpt>
      <trkpt lat="46.66862" lon="6.05277">
        <ele>1049</ele>
        <time>2010-05-11T12:50:45Z</time>
      </trkpt>
      <trkpt lat="46.6677" lon="6.05143">
        <ele>1056</ele>
        <time>2010-05-11T12:50:45Z</time>
      </trkpt>
      <trkpt lat="46.66737" lon="6.04983">
        <ele>1062</ele>
        <time>2010-05-11T12:50:45Z</time>
      </trkpt>
      <trkpt lat="46.66681" lon="6.04888">
        <ele>1057</ele>
        <time>2010-05-11T12:50:45Z</time>
      </trkpt>
      <trkpt lat="46.6667" lon="6.04756">
        <ele>1051</ele>
        <time>2010-05-11T12:50:45Z</time>
      </trkpt>
      <trkpt lat="46.66699" lon="6.04618">
        <ele>1058</ele>
        <time>2010-05-11T12:50:45Z</time>
      </trkpt>
      <trkpt lat="46.66756" lon="6.04527">
        <ele>1064</ele>
        <time>2010-05-11T12:50:45Z</time>
      </trkpt>
      <trkpt lat="46.66823" lon="6.04417">
        <ele>1073</ele>
        <time>2010-05-11T12:50:45Z</time>
      </trkpt>
      <trkpt lat="46.66871" lon="6.04325">
        <ele>1080</ele>
        <time>2010-05-11T12:50:45Z</time>
      </trkpt>
      <trkpt lat="46.6694" lon="6.04275">
        <ele>1090</ele>
        <time>2010-05-11T12:50:45Z</time>
      </trkpt>
      <trkpt lat="46.67017" lon="6.04201">
        <ele>1104</ele>
        <time>2010-05-11T12:50:45Z</time>
      </trkpt>
      <trkpt lat="46.67072" lon="6.0415">
        <ele>1104</ele>
        <time>2010-05-11T12:50:45Z</time>
      </trkpt>
      <trkpt lat="46.67102" lon="6.04125">
        <ele>1089</ele>
        <time>2010-05-11T12:50:45Z</time>
      </trkpt>
      <trkpt lat="46.67221" lon="6.04156">
        <ele>1071</ele>
        <time>2010-05-11T12:50:45Z</time>
      </trkpt>
      <trkpt lat="46.67314" lon="6.04133">
        <ele>1040</ele>
        <time>2010-05-11T12:50:45Z</time>
      </trkpt>
      <trkpt lat="46.67414" lon="6.04232">
        <ele>1031</ele>
        <time>2010-05-11T12:50:45Z</time>
      </trkpt>
      <trkpt lat="46.67435" lon="6.04279">
        <ele>1037</ele>
        <time>2010-05-11T12:50:45Z</time>
      </trkpt>
      <trkpt lat="46.67498" lon="6.04349">
        <ele>1042</ele>
        <time>2010-05-11T12:50:45Z</time>
      </trkpt>
      <trkpt lat="46.67531" lon="6.04387">
        <ele>1046</ele>
        <time>2010-05-11T12:50:45Z</time>
      </trkpt>
      <trkpt lat="46.676" lon="6.04402">
        <ele>1033</ele>
        <time>2010-05-11T12:50:45Z</time>
      </trkpt>
      <trkpt lat="46.67608" lon="6.04438">
        <ele>1039</ele>
        <time>2010-05-11T12:50:45Z</time>
      </trkpt>
      <trkpt lat="46.67653" lon="6.04487">
        <ele>1034</ele>
        <time>2010-05-11T12:50:45Z</time>
      </trkpt>
      <trkpt lat="46.6774" lon="6.04611">
        <ele>1033</ele>
        <time>2010-05-11T12:50:45Z</time>
      </trkpt>
      <trkpt lat="46.67799" lon="6.04589">
        <ele>1032</ele>
        <time>2010-05-11T12:50:45Z</time>
      </trkpt>
      <trkpt lat="46.67887" lon="6.04578">
        <ele>1034</ele>
        <time>2010-05-11T12:50:45Z</time>
      </trkpt>
      <trkpt lat="46.6791" lon="6.04554">
        <ele>1036</ele>
        <time>2010-05-11T12:50:45Z</time>
      </trkpt>
      <trkpt lat="46.67961" lon="6.04521">
        <ele>1040</ele>
        <time>2010-05-11T12:50:45Z</time>
      </trkpt>
      <trkpt lat="46.68009" lon="6.04482">
        <ele>1045</ele>
        <time>2010-05-11T12:50:45Z</time>
      </trkpt>
      <trkpt lat="46.68007" lon="6.04477">
        <ele>1046</ele>
        <time>2010-05-11T12:50:45Z</time>
      </trkpt>
      <trkpt lat="46.68269" lon="6.04937">
        <ele>1057</ele>
        <time>2010-05-11T12:50:45Z</time>
      </trkpt>
      <trkpt lat="46.68443" lon="6.05066">
        <ele>1071</ele>
        <time>2010-05-11T12:50:45Z</time>
      </trkpt>
      <trkpt lat="46.68549" lon="6.05191">
        <ele>1076</ele>
        <time>2010-05-11T12:50:45Z</time>
      </trkpt>
      <trkpt lat="46.68628" lon="6.05266">
        <ele>1080</ele>
        <time>2010-05-11T12:50:45Z</time>
      </trkpt>
      <trkpt lat="46.68685" lon="6.05371">
        <ele>1079</ele>
        <time>2010-05-11T12:50:45Z</time>
      </trkpt>
      <trkpt lat="46.68711" lon="6.05422">
        <ele>1080</ele>
        <time>2010-05-11T12:50:45Z</time>
      </trkpt>
      <trkpt lat="46.68758" lon="6.05477">
        <ele>1087</ele>
        <time>2010-05-11T12:50:45Z</time>
      </trkpt>
      <trkpt lat="46.68775" lon="6.05528">
        <ele>1087</ele>
        <time>2010-05-11T12:50:45Z</time>
      </trkpt>
      <trkpt lat="46.68859" lon="6.05622">
        <ele>1095</ele>
        <time>2010-05-11T12:50:45Z</time>
      </trkpt>
      <trkpt lat="46.68958" lon="6.05831">
        <ele>1104</ele>
        <time>2010-05-11T12:50:45Z</time>
      </trkpt>
      <trkpt lat="46.68998" lon="6.05936">
        <ele>1106</ele>
        <time>2010-05-11T12:50:45Z</time>
      </trkpt>
      <trkpt lat="46.69079" lon="6.06085">
        <ele>1112</ele>
        <time>2010-05-11T12:50:45Z</time>
      </trkpt>
      <trkpt lat="46.69142" lon="6.06142">
        <ele>1121</ele>
        <time>2010-05-11T12:50:45Z</time>
      </trkpt>
      <trkpt lat="46.69215" lon="6.06242">
        <ele>1126</ele>
        <time>2010-05-11T12:50:45Z</time>
      </trkpt>
      <trkpt lat="46.69326" lon="6.06452">
        <ele>1137</ele>
        <time>2010-05-11T12:50:45Z</time>
      </trkpt>
      <trkpt lat="46.69378" lon="6.06623">
        <ele>1139</ele>
        <time>2010-05-11T12:50:45Z</time>
      </trkpt>
      <trkpt lat="46.69437" lon="6.06705">
        <ele>1142</ele>
        <time>2010-05-11T12:50:45Z</time>
      </trkpt>
      <trkpt lat="46.69476" lon="6.06823">
        <ele>1140</ele>
        <time>2010-05-11T12:50:45Z</time>
      </trkpt>
      <trkpt lat="46.69572" lon="6.06967">
        <ele>1124</ele>
        <time>2010-05-11T12:50:45Z</time>
      </trkpt>
      <trkpt lat="46.69575" lon="6.07078">
        <ele>1122</ele>
        <time>2010-05-11T12:50:45Z</time>
      </trkpt>
      <trkpt lat="46.69639" lon="6.07135">
        <ele>1116</ele>
        <time>2010-05-11T12:50:45Z</time>
      </trkpt>
      <trkpt lat="46.6969" lon="6.07067">
        <ele>1106</ele>
        <time>2010-05-11T12:50:45Z</time>
      </trkpt>
      <trkpt lat="46.69741" lon="6.07041">
        <ele>1087</ele>
        <time>2010-05-11T12:50:45Z</time>
      </trkpt>
      <trkpt lat="46.69753" lon="6.07071">
        <ele>1092</ele>
        <time>2010-05-11T12:50:45Z</time>
      </trkpt>
      <trkpt lat="46.69824" lon="6.07125">
        <ele>1094</ele>
        <time>2010-05-11T12:50:45Z</time>
      </trkpt>
      <trkpt lat="46.69843" lon="6.07208">
        <ele>1098</ele>
        <time>2010-05-11T12:50:45Z</time>
      </trkpt>
      <trkpt lat="46.69872" lon="6.0722">
        <ele>1096</ele>
        <time>2010-05-11T12:50:45Z</time>
      </trkpt>
      <trkpt lat="46.69911" lon="6.07219">
        <ele>1087</ele>
        <time>2010-05-11T12:50:45Z</time>
      </trkpt>
      <trkpt lat="46.69982" lon="6.07365">
        <ele>1087</ele>
        <time>2010-05-11T12:50:45Z</time>
      </trkpt>
      <trkpt lat="46.69996" lon="6.07435">
        <ele>1088</ele>
        <time>2010-05-11T12:50:45Z</time>
      </trkpt>
      <trkpt lat="46.7009" lon="6.07579">
        <ele>1076</ele>
        <time>2010-05-11T12:50:45Z</time>
      </trkpt>
      <trkpt lat="46.70065" lon="6.07459">
        <ele>1061</ele>
        <time>2010-05-11T12:50:45Z</time>
      </trkpt>
      <trkpt lat="46.7003" lon="6.07417">
        <ele>1069</ele>
        <time>2010-05-11T12:50:45Z</time>
      </trkpt>
      <trkpt lat="46.70029" lon="6.07381">
        <ele>1065</ele>
        <time>2010-05-11T12:50:45Z</time>
      </trkpt>
      <trkpt lat="46.70033" lon="6.07349">
        <ele>1060</ele>
        <time>2010-05-11T12:50:45Z</time>
      </trkpt>
      <trkpt lat="46.70004" lon="6.07245">
        <ele>1055</ele>
        <time>2010-05-11T12:50:45Z</time>
      </trkpt>
      <trkpt lat="46.69966" lon="6.07181">
        <ele>1054</ele>
        <time>2010-05-11T12:50:45Z</time>
      </trkpt>
      <trkpt lat="46.69938" lon="6.07152">
        <ele>1056</ele>
        <time>2010-05-11T12:50:45Z</time>
      </trkpt>
      <trkpt lat="46.69886" lon="6.06998">
        <ele>1036</ele>
        <time>2010-05-11T12:50:45Z</time>
      </trkpt>
      <trkpt lat="46.6979" lon="6.06841">
        <ele>1036</ele>
        <time>2010-05-11T12:50:45Z</time>
      </trkpt>
      <trkpt lat="46.69763" lon="6.06708">
        <ele>1024</ele>
        <time>2010-05-11T12:50:45Z</time>
      </trkpt>
      <trkpt lat="46.69729" lon="6.06582">
        <ele>1025</ele>
        <time>2010-05-11T12:50:45Z</time>
      </trkpt>
      <trkpt lat="46.69719" lon="6.06529">
        <ele>1022</ele>
        <time>2010-05-11T12:50:45Z</time>
      </trkpt>
      <trkpt lat="46.69726" lon="6.06473">
        <ele>1011</ele>
        <time>2010-05-11T12:50:45Z</time>
      </trkpt>
      <trkpt lat="46.6969" lon="6.0633">
        <ele>1003</ele>
        <time>2010-05-11T12:50:45Z</time>
      </trkpt>
      <trkpt lat="46.6975" lon="6.06416">
        <ele>993</ele>
        <time>2010-05-11T12:50:45Z</time>
      </trkpt>
      <trkpt lat="46.69807" lon="6.066">
        <ele>981</ele>
        <time>2010-05-11T12:50:45Z</time>
      </trkpt>
      <trkpt lat="46.69853" lon="6.06695">
        <ele>976</ele>
        <time>2010-05-11T12:50:45Z</time>
      </trkpt>
      <trkpt lat="46.69934" lon="6.06835">
        <ele>977</ele>
        <time>2010-05-11T12:50:45Z</time>
      </trkpt>
      <trkpt lat="46.70025" lon="6.06946">
        <ele>975</ele>
        <time>2010-05-11T12:50:45Z</time>
      </trkpt>
      <trkpt lat="46.70077" lon="6.0708">
        <ele>990</ele>
        <time>2010-05-11T12:50:45Z</time>
      </trkpt>
      <trkpt lat="46.70122" lon="6.07237">
        <ele>992</ele>
        <time>2010-05-11T12:50:45Z</time>
      </trkpt>
      <trkpt lat="46.70176" lon="6.07293">
        <ele>976</ele>
        <time>2010-05-11T12:50:45Z</time>
      </trkpt>
      <trkpt lat="46.70239" lon="6.07425">
        <ele>965</ele>
        <time>2010-05-11T12:50:45Z</time>
      </trkpt>
      <trkpt lat="46.70273" lon="6.07581">
        <ele>954</ele>
        <time>2010-05-11T12:50:45Z</time>
      </trkpt>
      <trkpt lat="46.70316" lon="6.07755">
        <ele>947</ele>
        <time>2010-05-11T12:50:45Z</time>
      </trkpt>
      <trkpt lat="46.70384" lon="6.07821">
        <ele>934</ele>
        <time>2010-05-11T12:50:45Z</time>
      </trkpt>
      <trkpt lat="46.7046" lon="6.07761">
        <ele>929</ele>
        <time>2010-05-11T12:50:45Z</time>
      </trkpt>
      <trkpt lat="46.705" lon="6.07728">
        <ele>931</ele>
        <time>2010-05-11T12:50:45Z</time>
      </trkpt>
      <trkpt lat="46.70551" lon="6.07735">
        <ele>933</ele>
        <time>2010-05-11T12:50:45Z</time>
      </trkpt>
      <trkpt lat="46.70606" lon="6.07788">
        <ele>942</ele>
        <time>2010-05-11T12:50:45Z</time>
      </trkpt>
      <trkpt lat="46.70666" lon="6.07795">
        <ele>946</ele>
        <time>2010-05-11T12:50:45Z</time>
      </trkpt>
      <trkpt lat="46.70729" lon="6.0775">
        <ele>943</ele>
        <time>2010-05-11T12:50:45Z</time>
      </trkpt>
      <trkpt lat="46.70694" lon="6.07977">
        <ele>945</ele>
        <time>2010-05-11T12:50:45Z</time>
      </trkpt>
      <trkpt lat="46.7073" lon="6.08045">
        <ele>940</ele>
        <time>2010-05-11T12:50:45Z</time>
      </trkpt>
      <trkpt lat="46.70776" lon="6.08107">
        <ele>938</ele>
        <time>2010-05-11T12:50:45Z</time>
      </trkpt>
      <trkpt lat="46.70801" lon="6.08224">
        <ele>932</ele>
        <time>2010-05-11T12:50:45Z</time>
      </trkpt>
      <trkpt lat="46.70849" lon="6.08279">
        <ele>939</ele>
        <time>2010-05-11T12:50:45Z</time>
      </trkpt>
      <trkpt lat="46.70936" lon="6.08357">
        <ele>935</ele>
        <time>2010-05-11T12:50:45Z</time>
      </trkpt>
      <trkpt lat="46.70959" lon="6.08408">
        <ele>934</ele>
        <time>2010-05-11T12:50:45Z</time>
      </trkpt>
      <trkpt lat="46.70924" lon="6.08468">
        <ele>948</ele>
        <time>2010-05-11T12:50:45Z</time>
      </trkpt>
      <trkpt lat="46.70917" lon="6.08516">
        <ele>946</ele>
        <time>2010-05-11T12:50:45Z</time>
      </trkpt>
      <trkpt lat="46.70928" lon="6.08592">
        <ele>934</ele>
        <time>2010-05-11T12:50:45Z</time>
      </trkpt>
      <trkpt lat="46.70913" lon="6.08644">
        <ele>931</ele>
        <time>2010-05-11T12:50:45Z</time>
      </trkpt>
      <trkpt lat="46.70924" lon="6.08733">
        <ele>929</ele>
        <time>2010-05-11T12:50:45Z</time>
      </trkpt>
      <trkpt lat="46.70988" lon="6.08829">
        <ele>926</ele>
        <time>2010-05-11T12:50:45Z</time>
      </trkpt>
      <trkpt lat="46.71022" lon="6.0891">
        <ele>928</ele>
        <time>2010-05-11T12:50:45Z</time>
      </trkpt>
      <trkpt lat="46.71068" lon="6.09074">
        <ele>931</ele>
        <time>2010-05-11T12:50:45Z</time>
      </trkpt>
      <trkpt lat="46.71074" lon="6.09159">
        <ele>934</ele>
        <time>2010-05-11T12:50:45Z</time>
      </trkpt>
      <trkpt lat="46.71078" lon="6.09176">
        <ele>935</ele>
        <time>2010-05-11T12:50:45Z</time>
      </trkpt>
      <trkpt lat="46.71137" lon="6.09229">
        <ele>938</ele>
        <time>2010-05-11T12:50:45Z</time>
      </trkpt>
      <trkpt lat="46.71209" lon="6.09316">
        <ele>941</ele>
        <time>2010-05-11T12:50:45Z</time>
      </trkpt>
      <trkpt lat="46.71281" lon="6.09373">
        <ele>944</ele>
        <time>2010-05-11T12:50:45Z</time>
      </trkpt>
      <trkpt lat="46.71384" lon="6.09537">
        <ele>950</ele>
        <time>2010-05-11T12:50:45Z</time>
      </trkpt>
      <trkpt lat="46.71424" lon="6.09547">
        <ele>950</ele>
        <time>2010-05-11T12:50:45Z</time>
      </trkpt>
      <trkpt lat="46.71509" lon="6.09553">
        <ele>952</ele>
        <time>2010-05-11T12:50:45Z</time>
      </trkpt>
      <trkpt lat="46.71481" lon="6.09584">
        <ele>950</ele>
        <time>2010-05-11T12:50:45Z</time>
      </trkpt>
      <trkpt lat="46.71475" lon="6.09645">
        <ele>951</ele>
        <time>2010-05-11T12:50:45Z</time>
      </trkpt>
      <trkpt lat="46.71486" lon="6.09711">
        <ele>953</ele>
        <time>2010-05-11T12:50:45Z</time>
      </trkpt>
      <trkpt lat="46.7148" lon="6.09757">
        <ele>956</ele>
        <time>2010-05-11T12:50:45Z</time>
      </trkpt>
      <trkpt lat="46.71487" lon="6.0981">
        <ele>958</ele>
        <time>2010-05-11T12:50:45Z</time>
      </trkpt>
      <trkpt lat="46.71486" lon="6.09862">
        <ele>963</ele>
        <time>2010-05-11T12:50:45Z</time>
      </trkpt>
      <trkpt lat="46.71483" lon="6.09934">
        <ele>971</ele>
        <time>2010-05-11T12:50:45Z</time>
      </trkpt>
      <trkpt lat="46.71498" lon="6.09977">
        <ele>975</ele>
        <time>2010-05-11T12:50:45Z</time>
      </trkpt>
      <trkpt lat="46.71497" lon="6.10063">
        <ele>988</ele>
        <time>2010-05-11T12:50:45Z</time>
      </trkpt>
      <trkpt lat="46.7152" lon="6.10103">
        <ele>988</ele>
        <time>2010-05-11T12:50:45Z</time>
      </trkpt>
      <trkpt lat="46.71548" lon="6.10158">
        <ele>986</ele>
        <time>2010-05-11T12:50:45Z</time>
      </trkpt>
      <trkpt lat="46.71618" lon="6.10222">
        <ele>977</ele>
        <time>2010-05-11T12:50:45Z</time>
      </trkpt>
      <trkpt lat="46.71655" lon="6.10263">
        <ele>975</ele>
        <time>2010-05-11T12:50:45Z</time>
      </trkpt>
      <trkpt lat="46.71677" lon="6.10268">
        <ele>973</ele>
        <time>2010-05-11T12:50:45Z</time>
      </trkpt>
      <trkpt lat="46.71682" lon="6.10334">
        <ele>977</ele>
        <time>2010-05-11T12:50:45Z</time>
      </trkpt>
      <trkpt lat="46.7171" lon="6.10379">
        <ele>976</ele>
        <time>2010-05-11T12:50:45Z</time>
      </trkpt>
      <trkpt lat="46.71754" lon="6.10382">
        <ele>974</ele>
        <time>2010-05-11T12:50:45Z</time>
      </trkpt>
      <trkpt lat="46.71806" lon="6.10448">
        <ele>972</ele>
        <time>2010-05-11T12:50:45Z</time>
      </trkpt>
      <trkpt lat="46.71857" lon="6.10481">
        <ele>971</ele>
        <time>2010-05-11T12:50:45Z</time>
      </trkpt>
      <trkpt lat="46.71916" lon="6.10475">
        <ele>972</ele>
        <time>2010-05-11T12:50:45Z</time>
      </trkpt>
      <trkpt lat="46.71962" lon="6.10449">
        <ele>972</ele>
        <time>2010-05-11T12:50:45Z</time>
      </trkpt>
      <trkpt lat="46.71988" lon="6.10405">
        <ele>972</ele>
        <time>2010-05-11T12:50:45Z</time>
      </trkpt>
      <trkpt lat="46.72" lon="6.10373">
        <ele>974</ele>
        <time>2010-05-11T12:50:45Z</time>
      </trkpt>
      <trkpt lat="46.72046" lon="6.10343">
        <ele>973</ele>
        <time>2010-05-11T12:50:45Z</time>
      </trkpt>
      <trkpt lat="46.72104" lon="6.10364">
        <ele>977</ele>
        <time>2010-05-11T12:50:45Z</time>
      </trkpt>
      <trkpt lat="46.72159" lon="6.1041">
        <ele>974</ele>
        <time>2010-05-11T12:50:45Z</time>
      </trkpt>
      <trkpt lat="46.72207" lon="6.10518">
        <ele>970</ele>
        <time>2010-05-11T12:50:45Z</time>
      </trkpt>
      <trkpt lat="46.72189" lon="6.10602">
        <ele>972</ele>
        <time>2010-05-11T12:50:45Z</time>
      </trkpt>
      <trkpt lat="46.72176" lon="6.1065">
        <ele>979</ele>
        <time>2010-05-11T12:50:45Z</time>
      </trkpt>
      <trkpt lat="46.72136" lon="6.10706">
        <ele>984</ele>
        <time>2010-05-11T12:50:45Z</time>
      </trkpt>
      <trkpt lat="46.72127" lon="6.1083">
        <ele>991</ele>
        <time>2010-05-11T12:50:45Z</time>
      </trkpt>
      <trkpt lat="46.72169" lon="6.10915">
        <ele>996</ele>
        <time>2010-05-11T12:50:45Z</time>
      </trkpt>
      <trkpt lat="46.72265" lon="6.11075">
        <ele>997</ele>
        <time>2010-05-11T12:50:45Z</time>
      </trkpt>
      <trkpt lat="46.72309" lon="6.11118">
        <ele>997</ele>
        <time>2010-05-11T12:50:45Z</time>
      </trkpt>
      <trkpt lat="46.72524" lon="6.11549">
        <ele>1007</ele>
        <time>2010-05-11T12:50:45Z</time>
      </trkpt>
      <trkpt lat="46.72515" lon="6.11623">
        <ele>1010</ele>
        <time>2010-05-11T12:50:45Z</time>
      </trkpt>
      <trkpt lat="46.72508" lon="6.1178">
        <ele>1024</ele>
        <time>2010-05-11T12:50:45Z</time>
      </trkpt>
      <trkpt lat="46.72524" lon="6.1182">
        <ele>1026</ele>
        <time>2010-05-11T12:50:45Z</time>
      </trkpt>
      <trkpt lat="46.7256" lon="6.11843">
        <ele>1024</ele>
        <time>2010-05-11T12:50:45Z</time>
      </trkpt>
      <trkpt lat="46.72598" lon="6.11855">
        <ele>1023</ele>
        <time>2010-05-11T12:50:45Z</time>
      </trkpt>
      <trkpt lat="46.72631" lon="6.11864">
        <ele>1023</ele>
        <time>2010-05-11T12:50:45Z</time>
      </trkpt>
      <trkpt lat="46.72663" lon="6.11906">
        <ele>1023</ele>
        <time>2010-05-11T12:50:45Z</time>
      </trkpt>
      <trkpt lat="46.72704" lon="6.11967">
        <ele>1015</ele>
        <time>2010-05-11T12:50:45Z</time>
      </trkpt>
      <trkpt lat="46.72734" lon="6.1194">
        <ele>1015</ele>
        <time>2010-05-11T12:50:45Z</time>
      </trkpt>
      <trkpt lat="46.72791" lon="6.11918">
        <ele>1012</ele>
        <time>2010-05-11T12:50:45Z</time>
      </trkpt>
      <trkpt lat="46.72856" lon="6.11945">
        <ele>1008</ele>
        <time>2010-05-11T12:50:45Z</time>
      </trkpt>
      <trkpt lat="46.72918" lon="6.11907">
        <ele>1009</ele>
        <time>2010-05-11T12:50:45Z</time>
      </trkpt>
      <trkpt lat="46.72951" lon="6.11926">
        <ele>1006</ele>
        <time>2010-05-11T12:50:45Z</time>
      </trkpt>
      <trkpt lat="46.72987" lon="6.11928">
        <ele>999</ele>
        <time>2010-05-11T12:50:45Z</time>
      </trkpt>
      <trkpt lat="46.72996" lon="6.11988">
        <ele>999</ele>
        <time>2010-05-11T12:50:45Z</time>
      </trkpt>
      <trkpt lat="46.73011" lon="6.12077">
        <ele>994</ele>
        <time>2010-05-11T12:50:45Z</time>
      </trkpt>
      <trkpt lat="46.73018" lon="6.12212">
        <ele>998</ele>
        <time>2010-05-11T12:50:45Z</time>
      </trkpt>
      <trkpt lat="46.73027" lon="6.12268">
        <ele>989</ele>
        <time>2010-05-11T12:50:45Z</time>
      </trkpt>
      <trkpt lat="46.7304" lon="6.12282">
        <ele>984</ele>
        <time>2010-05-11T12:50:45Z</time>
      </trkpt>
      <trkpt lat="46.73052" lon="6.12267">
        <ele>983</ele>
        <time>2010-05-11T12:50:45Z</time>
      </trkpt>
      <trkpt lat="46.73063" lon="6.12222">
        <ele>985</ele>
        <time>2010-05-11T12:50:45Z</time>
      </trkpt>
      <trkpt lat="46.7309" lon="6.12201">
        <ele>983</ele>
        <time>2010-05-11T12:50:45Z</time>
      </trkpt>
      <trkpt lat="46.73111" lon="6.12202">
        <ele>982</ele>
        <time>2010-05-11T12:50:45Z</time>
      </trkpt>
      <trkpt lat="46.73142" lon="6.1208">
        <ele>982</ele>
        <time>2010-05-11T12:50:45Z</time>
      </trkpt>
      <trkpt lat="46.7316" lon="6.11993">
        <ele>981</ele>
        <time>2010-05-11T12:50:45Z</time>
      </trkpt>
      <trkpt lat="46.73182" lon="6.11896">
        <ele>977</ele>
        <time>2010-05-11T12:50:45Z</time>
      </trkpt>
      <trkpt lat="46.73196" lon="6.11874">
        <ele>975</ele>
        <time>2010-05-11T12:50:45Z</time>
      </trkpt>
      <trkpt lat="46.73308" lon="6.11879">
        <ele>972</ele>
        <time>2010-05-11T12:50:45Z</time>
      </trkpt>
      <trkpt lat="46.73349" lon="6.11872">
        <ele>973</ele>
        <time>2010-05-11T12:50:45Z</time>
      </trkpt>
      <trkpt lat="46.73396" lon="6.11878">
        <ele>974</ele>
        <time>2010-05-11T12:50:45Z</time>
      </trkpt>
      <trkpt lat="46.73429" lon="6.11897">
        <ele>975</ele>
        <time>2010-05-11T12:50:45Z</time>
      </trkpt>
    </trkseg>
  </trk>
</gpx>